| time (UTC) | temp F | wind direction | speed MPH | gust MPH | rain 1hr in | rain 24hr in | rain mn in | humidity % | barometer mb |
| 20260905032449 | 76 | 313 | 3.0 | 4.0 | 0.00 | 0.00 | 0.00 | 34 | 1019.9 |
| 20260905032349 | 76 | 313 | 3.0 | 4.0 | 0.00 | 0.00 | 0.00 | 34 | 1019.9 |
| 20260905032249 | 76 | 313 | 3.0 | 4.0 | 0.00 | 0.00 | 0.00 | 34 | 1019.8 |
| 20260905032149 | 75 | 313 | 3.0 | 4.0 | 0.00 | 0.00 | 0.00 | 34 | 1019.9 |
| 20260905032059 | 75 | 313 | 3.0 | 4.0 | 0.00 | 0.00 | 0.00 | 34 | 1019.9 |
| 20260905031948 | 75 | 313 | 3.0 | 4.0 | 0.00 | 0.00 | 0.00 | 34 | 1019.9 |
| 20260905031856 | 75 | 313 | 2.0 | 4.0 | 0.00 | 0.00 | 0.00 | 34 | 1019.9 |
| 20260905031649 | 75 | 313 | 2.0 | 4.0 | 0.00 | 0.00 | 0.00 | 33 | 1019.9 |
| 20260905031549 | 76 | 313 | 2.0 | 4.0 | 0.00 | 0.00 | 0.00 | 33 | 1019.8 |
| 20260905031447 | 76 | 313 | 2.0 | 4.0 | 0.00 | 0.00 | 0.00 | 33 | 1019.9 |
| 20260905031347 | 76 | 313 | 2.0 | 4.0 | 0.00 | 0.00 | 0.00 | 33 | 1019.8 |
| 20260905031252 | 76 | 313 | 2.0 | 4.0 | 0.00 | 0.00 | 0.00 | 34 | 1019.8 |
| 20260905031057 | 76 | 313 | 2.0 | 4.0 | 0.00 | 0.00 | 0.00 | 33 | 1019.8 |
| 20260905031049 | 76 | 313 | 2.0 | 4.0 | 0.00 | 0.00 | 0.00 | 33 | 1019.9 |
| 20260905030846 | 76 | 313 | 2.0 | 4.0 | 0.00 | 0.00 | 0.00 | 33 | 1019.9 |
| 20260905030746 | 76 | 313 | 2.0 | 4.0 | 0.00 | 0.00 | 0.00 | 33 | 1019.8 |
| 20260905030651 | 76 | 313 | 2.0 | 4.0 | 0.00 | 0.00 | 0.00 | 33 | 1019.8 |
| 20260905030451 | 76 | 313 | 2.0 | 4.0 | 0.00 | 0.00 | 0.00 | 33 | 1019.8 |
| 20260905030445 | 76 | 313 | 2.0 | 3.0 | 0.00 | 0.00 | 0.00 | 33 | 1019.8 |
| 20260905030350 | 76 | 329 | 2.0 | 3.0 | 0.00 | 0.00 | 0.00 | 33 | 1019.8 |
| 20260905030151 | 77 | 329 | 2.0 | 3.0 | 0.00 | 0.00 | 0.00 | 33 | 1019.7 |
| 20260905025954 | 77 | 318 | 2.0 | 3.0 | 0.00 | 0.00 | 0.00 | 32 | 1019.7 |
| 20260905025950 | 77 | 318 | 2.0 | 3.0 | 0.00 | 0.00 | 0.00 | 33 | 1019.7 |
| 20260905025749 | 77 | 318 | 2.0 | 3.0 | 0.00 | 0.00 | 0.00 | 32 | 1019.7 |
| 20260905025542 | 78 | 342 | 2.0 | 4.0 | 0.00 | 0.00 | 0.00 | 32 | 1019.7 |
| 20260905025447 | 78 | 342 | 2.0 | 4.0 | 0.00 | 0.00 | 0.00 | 32 | 1019.7 |
| 20260905025441 | 78 | 342 | 2.0 | 4.0 | 0.00 | 0.00 | 0.00 | 32 | 1019.6 |
| 20260905025337 | 78 | 342 | 2.0 | 4.0 | 0.00 | 0.00 | 0.00 | 32 | 1019.6 |
| 20260905025237 | 78 | 342 | 2.0 | 4.0 | 0.00 | 0.00 | 0.00 | 32 | 1019.6 |
| 20260905025137 | 78 | 342 | 2.0 | 4.0 | 0.00 | 0.00 | 0.00 | 32 | 1019.6 |
| 20260905025037 | 78 | 342 | 2.0 | 5.0 | 0.00 | 0.00 | 0.00 | 32 | 1019.6 |
| 20260905024947 | 78 | 342 | 2.0 | 6.0 | 0.00 | 0.00 | 0.00 | 32 | 1019.6 |
| 20260905024937 | 78 | 342 | 2.0 | 6.0 | 0.00 | 0.00 | 0.00 | 32 | 1019.4 |
| 20260905024837 | 78 | 328 | 3.0 | 6.0 | 0.00 | 0.00 | 0.00 | 31 | 1019.4 |
| 20260905024743 | 78 | 328 | 3.0 | 7.0 | 0.00 | 0.00 | 0.00 | 31 | 1019.4 |
| 20260905024537 | 78 | 337 | 3.0 | 7.0 | 0.00 | 0.00 | 0.00 | 31 | 1019.4 |
| 20260905024437 | 78 | 348 | 3.0 | 7.0 | 0.00 | 0.00 | 0.00 | 31 | 1019.4 |
| 20260905024337 | 78 | 348 | 3.0 | 7.0 | 0.00 | 0.00 | 0.00 | 31 | 1019.4 |
| 20260905024245 | 78 | 348 | 4.0 | 7.0 | 0.00 | 0.00 | 0.00 | 31 | 1019.4 |
| 20260905024037 | 78 | 315 | 3.0 | 7.0 | 0.00 | 0.00 | 0.00 | 31 | 1019.3 |
| 20260905023947 | 78 | 338 | 3.0 | 7.0 | 0.00 | 0.00 | 0.00 | 31 | 1019.3 |
| 20260905023937 | 78 | 298 | 3.0 | 7.0 | 0.00 | 0.00 | 0.00 | 31 | 1019.3 |
| 20260905023837 | 78 | 321 | 3.0 | 7.0 | 0.00 | 0.00 | 0.00 | 31 | 1019.3 |
| 20260905023744 | 78 | 317 | 3.0 | 7.0 | 0.00 | 0.00 | 0.00 | 31 | 1019.4 |
| 20260905023554 | 78 | 292 | 3.0 | 7.0 | 0.00 | 0.00 | 0.00 | 32 | 1019.3 |
| 20260905023434 | 78 | 305 | 3.0 | 7.0 | 0.00 | 0.00 | 0.00 | 32 | 1019.2 |
| 20260905023333 | 78 | 300 | 3.0 | 5.0 | 0.00 | 0.00 | 0.00 | 31 | 1019.3 |
| 20260905023233 | 78 | 323 | 3.0 | 5.0 | 0.00 | 0.00 | 0.00 | 32 | 1019.3 |
| 20260905023133 | 78 | 313 | 3.0 | 5.0 | 0.00 | 0.00 | 0.00 | 32 | 1019.3 |
| 20260905023058 | 78 | 313 | 3.0 | 5.0 | 0.00 | 0.00 | 0.00 | 32 | 1019.3 |
| 20260905022947 | 78 | 316 | 2.0 | 5.0 | 0.00 | 0.00 | 0.00 | 33 | 1019.2 |
| 20260905022633 | 78 | 319 | 2.0 | 4.0 | 0.00 | 0.00 | 0.00 | 34 | 1019.2 |
| 20260905022533 | 78 | 344 | 2.0 | 6.0 | 0.00 | 0.00 | 0.00 | 34 | 1019.1 |
| 20260905022447 | 78 | 344 | 2.0 | 6.0 | 0.00 | 0.00 | 0.00 | 34 | 1019.1 |
| 20260905022433 | 78 | 351 | 2.0 | 6.0 | 0.00 | 0.00 | 0.00 | 34 | 1019.1 |
| 20260905022333 | 78 | 12 | 2.0 | 6.0 | 0.00 | 0.00 | 0.00 | 34 | 1019.2 |
| 20260905022233 | 78 | 12 | 2.0 | 6.0 | 0.00 | 0.00 | 0.00 | 34 | 1019.1 |
| 20260905022133 | 78 | 12 | 2.0 | 6.0 | 0.00 | 0.00 | 0.00 | 34 | 1019.1 |
| 20260905022033 | 78 | 30 | 2.0 | 6.0 | 0.00 | 0.00 | 0.00 | 34 | 1019.1 |
| 20260905021933 | 78 | 5 | 2.0 | 6.0 | 0.00 | 0.00 | 0.00 | 34 | 1019.1 |
| 20260905021833 | 78 | 5 | 2.0 | 6.0 | 0.00 | 0.00 | 0.00 | 34 | 1019.1 |
| 20260905021740 | 78 | 5 | 2.0 | 6.0 | 0.00 | 0.00 | 0.00 | 34 | 1019.1 |
| 20260905021540 | 78 | 32 | 2.0 | 6.0 | 0.00 | 0.00 | 0.00 | 33 | 1019.1 |
| 20260905021534 | 78 | 342 | 2.0 | 6.0 | 0.00 | 0.00 | 0.00 | 34 | 1019.0 |
| 20260905021329 | 79 | 21 | 2.0 | 6.0 | 0.00 | 0.00 | 0.00 | 33 | 1019.1 |
| 20260905021229 | 79 | 21 | 2.0 | 6.0 | 0.00 | 0.00 | 0.00 | 33 | 1019.1 |
| 20260905021129 | 79 | 336 | 2.0 | 6.0 | 0.00 | 0.00 | 0.00 | 33 | 1019.0 |
| 20260905021050 | 79 | 38 | 1.0 | 6.0 | 0.00 | 0.00 | 0.00 | 33 | 1019.0 |
| 20260905020929 | 79 | 22 | 1.0 | 4.0 | 0.00 | 0.00 | 0.00 | 33 | 1019.0 |
| 20260905020829 | 79 | 41 | 1.0 | 4.0 | 0.00 | 0.00 | 0.00 | 32 | 1019.0 |
| 20260905020729 | 79 | 53 | 1.0 | 4.0 | 0.00 | 0.00 | 0.00 | 33 | 1019.0 |
| 20260905020648 | 79 | 319 | 1.0 | 4.0 | 0.00 | 0.00 | 0.00 | 33 | 1019.1 |
| 20260905020534 | 79 | 5 | 1.0 | 4.0 | 0.00 | 0.00 | 0.00 | 34 | 1019.0 |
| 20260905020329 | 80 | 5 | 1.0 | 4.0 | 0.00 | 0.00 | 0.00 | 34 | 1019.0 |
| 20260905020236 | 80 | 5 | 1.0 | 4.0 | 0.00 | 0.00 | 0.00 | 34 | 1019.0 |
| 20260905020028 | 80 | 36 | 1.0 | 3.0 | 0.00 | 0.00 | 0.00 | 34 | 1019.0 |
| 20260905015929 | 80 | 36 | 1.0 | 3.0 | 0.00 | 0.00 | 0.00 | 34 | 1019.0 |
| 20260905015836 | 80 | 36 | 1.0 | 4.0 | 0.00 | 0.00 | 0.00 | 34 | 1019.0 |
| 20260905015626 | 80 | 36 | 2.0 | 5.0 | 0.00 | 0.00 | 0.00 | 33 | 1019.0 |
| 20260905015526 | 80 | 36 | 2.0 | 5.0 | 0.00 | 0.00 | 0.00 | 33 | 1019.0 |
| 20260905015426 | 80 | 36 | 2.0 | 5.0 | 0.00 | 0.00 | 0.00 | 32 | 1019.0 |
| 20260905015325 | 80 | 36 | 3.0 | 5.0 | 0.00 | 0.00 | 0.00 | 32 | 1019.0 |
| 20260905015250 | 81 | 36 | 3.0 | 5.0 | 0.00 | 0.00 | 0.00 | 32 | 1019.0 |
| 20260905015029 | 81 | 36 | 3.0 | 5.0 | 0.00 | 0.00 | 0.00 | 32 | 1019.0 |
| 20260905014825 | 81 | 50 | 3.0 | 5.0 | 0.00 | 0.00 | 0.00 | 31 | 1019.0 |
| 20260905014726 | 81 | 49 | 3.0 | 7.0 | 0.00 | 0.00 | 0.00 | 31 | 1019.0 |
| 20260905014625 | 81 | 32 | 3.0 | 7.0 | 0.00 | 0.00 | 0.00 | 31 | 1018.8 |
| 20260905014525 | 81 | 41 | 3.0 | 7.0 | 0.00 | 0.00 | 0.00 | 30 | 1018.8 |
| 20260905014442 | 81 | 42 | 3.0 | 7.0 | 0.00 | 0.00 | 0.00 | 30 | 1018.8 |
| 20260905014432 | 81 | 52 | 3.0 | 7.0 | 0.00 | 0.00 | 0.00 | 30 | 1018.8 |
| 20260905014224 | 81 | 28 | 3.0 | 7.0 | 0.00 | 0.00 | 0.00 | 30 | 1018.8 |
| 20260905014125 | 81 | 42 | 3.0 | 7.0 | 0.00 | 0.00 | 0.00 | 30 | 1018.8 |
| 20260905014025 | 81 | 37 | 3.0 | 7.0 | 0.00 | 0.00 | 0.00 | 29 | 1018.8 |
| 20260905013943 | 82 | 46 | 3.0 | 7.0 | 0.00 | 0.00 | 0.00 | 29 | 1018.8 |
| 20260905013925 | 82 | 49 | 3.0 | 7.0 | 0.00 | 0.00 | 0.00 | 29 | 1018.7 |
| 20260905013825 | 82 | 46 | 3.0 | 7.0 | 0.00 | 0.00 | 0.00 | 29 | 1018.8 |
| 20260905013721 | 82 | 44 | 3.0 | 7.0 | 0.00 | 0.00 | 0.00 | 28 | 1018.8 |
| 20260905013621 | 82 | 66 | 3.0 | 7.0 | 0.00 | 0.00 | 0.00 | 29 | 1018.8 |
| 20260905013520 | 82 | 78 | 3.0 | 7.0 | 0.00 | 0.00 | 0.00 | 28 | 1018.8 |
| 20260905013443 | 82 | 43 | 3.0 | 7.0 | 0.00 | 0.00 | 0.00 | 28 | 1018.8 |
| 20260905013428 | 82 | 65 | 3.0 | 7.0 | 0.00 | 0.00 | 0.00 | 28 | 1018.8 |
| 20260905013220 | 82 | 70 | 3.0 | 7.0 | 0.00 | 0.00 | 0.00 | 28 | 1018.7 |
| 20260905013139 | 82 | 43 | 4.0 | 8.0 | 0.00 | 0.00 | 0.00 | 28 | 1018.7 |
| 20260905013025 | 82 | 57 | 4.0 | 8.0 | 0.00 | 0.00 | 0.00 | 28 | 1018.7 |
| 20260905012821 | 82 | 73 | 4.0 | 9.0 | 0.00 | 0.00 | 0.00 | 28 | 1018.7 |
| 20260905012721 | 82 | 89 | 4.0 | 9.0 | 0.00 | 0.00 | 0.00 | 28 | 1018.7 |
| 20260905012628 | 83 | 80 | 4.0 | 9.0 | 0.00 | 0.00 | 0.00 | 28 | 1018.7 |
| 20260905012439 | 83 | 56 | 4.0 | 9.0 | 0.00 | 0.00 | 0.00 | 27 | 1018.6 |
| 20260905012420 | 83 | 63 | 4.0 | 9.0 | 0.00 | 0.00 | 0.00 | 27 | 1018.6 |
| 20260905012321 | 83 | 74 | 4.0 | 9.0 | 0.00 | 0.00 | 0.00 | 27 | 1018.7 |
| 20260905012221 | 83 | 73 | 4.0 | 9.0 | 0.00 | 0.00 | 0.00 | 27 | 1018.7 |
| 20260905012127 | 83 | 66 | 4.0 | 9.0 | 0.00 | 0.00 | 0.00 | 28 | 1018.7 |
| 20260905011938 | 83 | 94 | 4.0 | 9.0 | 0.00 | 0.00 | 0.00 | 27 | 1018.7 |
| 20260905011921 | 83 | 78 | 4.0 | 9.0 | 0.00 | 0.00 | 0.00 | 27 | 1018.7 |
| 20260905011815 | 83 | 79 | 4.0 | 9.0 | 0.00 | 0.00 | 0.00 | 27 | 1018.7 |
| 20260905011715 | 83 | 74 | 4.0 | 9.0 | 0.00 | 0.00 | 0.00 | 27 | 1018.7 |
| 20260905011615 | 83 | 53 | 4.0 | 9.0 | 0.00 | 0.00 | 0.00 | 27 | 1018.6 |
| 20260905011515 | 83 | 61 | 4.0 | 9.0 | 0.00 | 0.00 | 0.00 | 27 | 1018.6 |
| 20260905011438 | 83 | 63 | 4.0 | 9.0 | 0.00 | 0.00 | 0.00 | 27 | 1018.6 |
| 20260905011415 | 83 | 44 | 4.0 | 9.0 | 0.00 | 0.00 | 0.00 | 27 | 1018.6 |
| 20260905011315 | 83 | 68 | 4.0 | 9.0 | 0.00 | 0.00 | 0.00 | 27 | 1018.6 |
| 20260905011215 | 83 | 50 | 5.0 | 9.0 | 0.00 | 0.00 | 0.00 | 28 | 1018.6 |
| 20260905011133 | 83 | 62 | 5.0 | 9.0 | 0.00 | 0.00 | 0.00 | 27 | 1018.6 |
| 20260905011019 | 83 | 66 | 5.0 | 9.0 | 0.00 | 0.00 | 0.00 | 27 | 1018.6 |
| 20260905010821 | 83 | 99 | 5.0 | 9.0 | 0.00 | 0.00 | 0.00 | 27 | 1018.7 |
| 20260905010624 | 83 | 90 | 4.0 | 9.0 | 0.00 | 0.00 | 0.00 | 27 | 1018.6 |
| 20260905010620 | 83 | 84 | 4.0 | 9.0 | 0.00 | 0.00 | 0.00 | 27 | 1018.6 |
| 20260905010309 | 84 | 73 | 4.0 | 9.0 | 0.00 | 0.00 | 0.00 | 26 | 1018.6 |
| 20260905010215 | 84 | 71 | 4.0 | 9.0 | 0.00 | 0.00 | 0.00 | 27 | 1018.6 |
| 20260905005938 | 84 | 72 | 4.0 | 9.0 | 0.00 | 0.00 | 0.00 | 27 | 1018.6 |
| 20260905005901 | 84 | 88 | 4.0 | 10.0 | 0.00 | 0.00 | 0.00 | 26 | 1018.6 |
| 20260905005801 | 84 | 103 | 5.0 | 10.0 | 0.00 | 0.00 | 0.00 | 26 | 1018.6 |
| 20260905005700 | 84 | 72 | 5.0 | 10.0 | 0.00 | 0.00 | 0.00 | 27 | 1018.6 |
| 20260905005555 | 84 | 71 | 5.0 | 10.0 | 0.00 | 0.00 | 0.00 | 26 | 1018.6 |
| 20260905005455 | 84 | 83 | 5.0 | 10.0 | 0.00 | 0.00 | 0.00 | 26 | 1018.6 |
| 20260905005434 | 84 | 84 | 5.0 | 10.0 | 0.00 | 0.00 | 0.00 | 26 | 1018.6 |
| 20260905005356 | 84 | 80 | 5.0 | 10.0 | 0.00 | 0.00 | 0.00 | 26 | 1018.6 |
| 20260905005254 | 84 | 63 | 5.0 | 10.0 | 0.00 | 0.00 | 0.00 | 27 | 1018.5 |
| 20260905005154 | 84 | 92 | 5.0 | 10.0 | 0.00 | 0.00 | 0.00 | 26 | 1018.6 |
| 20260905005109 | 84 | 104 | 5.0 | 10.0 | 0.00 | 0.00 | 0.00 | 26 | 1018.6 |
| 20260905004956 | 85 | 90 | 5.0 | 10.0 | 0.00 | 0.00 | 0.00 | 26 | 1018.5 |
| 20260905004751 | 85 | 98 | 5.0 | 9.0 | 0.00 | 0.00 | 0.00 | 26 | 1018.6 |
| 20260905004651 | 85 | 80 | 5.0 | 10.0 | 0.00 | 0.00 | 0.00 | 26 | 1018.6 |
| 20260905004551 | 85 | 95 | 5.0 | 10.0 | 0.00 | 0.00 | 0.00 | 26 | 1018.5 |
| 20260905004451 | 85 | 90 | 5.0 | 10.0 | 0.00 | 0.00 | 0.00 | 26 | 1018.6 |
| 20260905004432 | 85 | 60 | 5.0 | 10.0 | 0.00 | 0.00 | 0.00 | 26 | 1018.6 |
| 20260905004356 | 85 | 73 | 5.0 | 10.0 | 0.00 | 0.00 | 0.00 | 26 | 1018.6 |
| 20260905004149 | 85 | 74 | 5.0 | 10.0 | 0.00 | 0.00 | 0.00 | 26 | 1018.6 |
| 20260905004049 | 85 | 90 | 5.0 | 10.0 | 0.00 | 0.00 | 0.00 | 25 | 1018.6 |
| 20260905003949 | 85 | 86 | 5.0 | 10.0 | 0.00 | 0.00 | 0.00 | 25 | 1018.6 |
| 20260905003932 | 85 | 92 | 5.0 | 10.0 | 0.00 | 0.00 | 0.00 | 25 | 1018.6 |
| 20260905003849 | 85 | 75 | 5.0 | 10.0 | 0.00 | 0.00 | 0.00 | 25 | 1018.6 |
| 20260905003749 | 85 | 88 | 5.0 | 10.0 | 0.00 | 0.00 | 0.00 | 25 | 1018.6 |
| 20260905003656 | 85 | 94 | 5.0 | 10.0 | 0.00 | 0.00 | 0.00 | 25 | 1018.6 |
| 20260905003448 | 85 | 105 | 5.0 | 11.0 | 0.00 | 0.00 | 0.00 | 25 | 1018.6 |
| 20260905003433 | 85 | 93 | 5.0 | 11.0 | 0.00 | 0.00 | 0.00 | 25 | 1018.6 |
| 20260905003345 | 85 | 83 | 5.0 | 11.0 | 0.00 | 0.00 | 0.00 | 25 | 1018.6 |
| 20260905003245 | 85 | 74 | 5.0 | 11.0 | 0.00 | 0.00 | 0.00 | 25 | 1018.6 |
| 20260905003144 | 85 | 63 | 6.0 | 11.0 | 0.00 | 0.00 | 0.00 | 25 | 1018.6 |
| 20260905003050 | 85 | 72 | 6.0 | 11.0 | 0.00 | 0.00 | 0.00 | 25 | 1018.6 |
| 20260905002933 | 86 | 94 | 6.0 | 11.0 | 0.00 | 0.00 | 0.00 | 25 | 1018.6 |
| 20260905002839 | 85 | 132 | 7.0 | 12.0 | 0.00 | 0.00 | 0.00 | 25 | 1018.6 |
| 20260905002738 | 86 | 57 | 7.0 | 13.0 | 0.00 | 0.00 | 0.00 | 25 | 1018.5 |
| 20260905002635 | 86 | 76 | 6.0 | 13.0 | 0.00 | 0.00 | 0.00 | 24 | 1018.6 |
| 20260905002534 | 86 | 44 | 6.0 | 13.0 | 0.00 | 0.00 | 0.00 | 24 | 1018.6 |
| 20260905002434 | 86 | 60 | 6.0 | 13.0 | 0.00 | 0.00 | 0.00 | 25 | 1018.5 |
| 20260905002331 | 86 | 98 | 6.0 | 13.0 | 0.00 | 0.00 | 0.00 | 25 | 1018.6 |
| 20260905002231 | 86 | 86 | 6.0 | 13.0 | 0.00 | 0.00 | 0.00 | 25 | 1018.5 |
| 20260905002131 | 86 | 86 | 6.0 | 13.0 | 0.00 | 0.00 | 0.00 | 25 | 1018.6 |
| 20260905002031 | 86 | 61 | 6.0 | 13.0 | 0.00 | 0.00 | 0.00 | 25 | 1018.6 |
| 20260905001927 | 86 | 98 | 5.0 | 13.0 | 0.00 | 0.00 | 0.00 | 24 | 1018.6 |
| 20260905001821 | 86 | 80 | 5.0 | 11.0 | 0.00 | 0.00 | 0.00 | 25 | 1018.6 |
| 20260905001727 | 86 | 89 | 5.0 | 10.0 | 0.00 | 0.00 | 0.00 | 25 | 1018.5 |
| 20260905001521 | 86 | 53 | 6.0 | 12.0 | 0.00 | 0.00 | 0.00 | 24 | 1018.5 |
| 20260905001420 | 86 | 124 | 6.0 | 12.0 | 0.00 | 0.00 | 0.00 | 25 | 1018.5 |
| 20260905001317 | 86 | 59 | 7.0 | 12.0 | 0.00 | 0.00 | 0.00 | 25 | 1018.5 |
| 20260905001217 | 86 | 90 | 7.0 | 12.0 | 0.00 | 0.00 | 0.00 | 24 | 1018.5 |
| 20260905001117 | 86 | 87 | 7.0 | 12.0 | 0.00 | 0.00 | 0.00 | 25 | 1018.5 |
| 20260905001015 | 86 | 96 | 7.0 | 12.0 | 0.00 | 0.00 | 0.00 | 24 | 1018.5 |
| 20260905000915 | 86 | 96 | 7.0 | 12.0 | 0.00 | 0.00 | 0.00 | 24 | 1018.5 |
| 20260905000810 | 86 | 59 | 8.0 | 12.0 | 0.00 | 0.00 | 0.00 | 24 | 1018.5 |
| 20260905000708 | 86 | 98 | 7.0 | 12.0 | 0.00 | 0.00 | 0.00 | 24 | 1018.5 |
| 20260905000616 | 87 | 50 | 6.0 | 12.0 | 0.00 | 0.00 | 0.00 | 24 | 1018.5 |
| 20260905000417 | 87 | 69 | 6.0 | 11.0 | 0.00 | 0.00 | 0.00 | 24 | 1018.4 |
| 20260905000205 | 87 | 94 | 6.0 | 11.0 | 0.00 | 0.00 | 0.00 | 24 | 1018.4 |
| 20260905000105 | 87 | 34 | 6.0 | 11.0 | 0.00 | 0.00 | 0.00 | 24 | 1018.4 |
| 20260905000005 | 87 | 95 | 6.0 | 12.0 | 0.00 | 0.00 | 0.00 | 25 | 1018.4 |
| 20260904235902 | 87 | 114 | 6.0 | 12.0 | 0.00 | 0.00 | 0.00 | 24 | 1018.4 |
| 20260904235759 | 87 | 55 | 6.0 | 12.0 | 0.00 | 0.00 | 0.00 | 24 | 1018.4 |
| 20260904235657 | 87 | 89 | 6.0 | 12.0 | 0.00 | 0.00 | 0.00 | 24 | 1018.4 |
| 20260904235557 | 87 | 67 | 6.0 | 12.0 | 0.00 | 0.00 | 0.00 | 24 | 1018.4 |
| 20260904235456 | 87 | 100 | 6.0 | 12.0 | 0.00 | 0.00 | 0.00 | 24 | 1018.4 |
| 20260904235356 | 87 | 65 | 5.0 | 12.0 | 0.00 | 0.00 | 0.00 | 24 | 1018.4 |
| 20260904235251 | 87 | 115 | 5.0 | 12.0 | 0.00 | 0.00 | 0.00 | 24 | 1018.4 |
| 20260904235151 | 87 | 97 | 5.0 | 12.0 | 0.00 | 0.00 | 0.00 | 24 | 1018.4 |
| 20260904235051 | 87 | 111 | 5.0 | 12.0 | 0.00 | 0.00 | 0.00 | 24 | 1018.4 |
| 20260904234950 | 87 | 69 | 5.0 | 10.0 | 0.00 | 0.00 | 0.00 | 24 | 1018.4 |
| 20260904234850 | 88 | 70 | 5.0 | 8.0 | 0.00 | 0.00 | 0.00 | 24 | 1018.5 |
| 20260904234745 | 88 | 30 | 4.0 | 8.0 | 0.00 | 0.00 | 0.00 | 25 | 1018.5 |
| 20260904234645 | 88 | 34 | 4.0 | 8.0 | 0.00 | 0.00 | 0.00 | 24 | 1018.5 |
| 20260904234544 | 88 | 32 | 4.0 | 8.0 | 0.00 | 0.00 | 0.00 | 24 | 1018.4 |
| 20260904234456 | 88 | 48 | 4.0 | 8.0 | 0.00 | 0.00 | 0.00 | 24 | 1018.4 |
| 20260904234344 | 88 | 70 | 5.0 | 9.0 | 0.00 | 0.00 | 0.00 | 24 | 1018.5 |
| 20260904234247 | 88 | 76 | 5.0 | 9.0 | 0.00 | 0.00 | 0.00 | 23 | 1018.5 |
| 20260904234038 | 88 | 70 | 5.0 | 15.0 | 0.00 | 0.00 | 0.00 | 23 | 1018.4 |
| 20260904233939 | 88 | 78 | 6.0 | 15.0 | 0.00 | 0.00 | 0.00 | 23 | 1018.4 |
| 20260904233839 | 89 | 61 | 6.0 | 15.0 | 0.00 | 0.00 | 0.00 | 24 | 1018.4 |
| 20260904233735 | 89 | 76 | 6.0 | 15.0 | 0.00 | 0.00 | 0.00 | 23 | 1018.4 |
| 20260904233635 | 89 | 65 | 7.0 | 15.0 | 0.00 | 0.00 | 0.00 | 23 | 1018.4 |
| 20260904233535 | 89 | 59 | 7.0 | 15.0 | 0.00 | 0.00 | 0.00 | 23 | 1018.4 |
| 20260904233433 | 89 | 65 | 7.0 | 15.0 | 0.00 | 0.00 | 0.00 | 22 | 1018.4 |
| 20260904233332 | 89 | 76 | 8.0 | 15.0 | 0.00 | 0.00 | 0.00 | 22 | 1018.4 |
| 20260904233227 | 89 | 56 | 8.0 | 15.0 | 0.00 | 0.00 | 0.00 | 22 | 1018.4 |
| 20260904233127 | 89 | 80 | 8.0 | 16.0 | 0.00 | 0.00 | 0.00 | 21 | 1018.4 |
| 20260904233027 | 89 | 56 | 9.0 | 16.0 | 0.00 | 0.00 | 0.00 | 22 | 1018.4 |
| 20260904232926 | 89 | 51 | 9.0 | 16.0 | 0.00 | 0.00 | 0.00 | 22 | 1018.4 |
| 20260904232827 | 89 | 46 | 9.0 | 16.0 | 0.00 | 0.00 | 0.00 | 21 | 1018.3 |
| 20260904232728 | 90 | 58 | 10.0 | 16.0 | 0.00 | 0.00 | 0.00 | 21 | 1018.3 |
| 20260904232527 | 90 | 77 | 10.0 | 16.0 | 0.00 | 0.00 | 0.00 | 20 | 1018.1 |
| 20260904232324 | 90 | 83 | 9.0 | 16.0 | 0.00 | 0.00 | 0.00 | 21 | 1018.1 |
| 20260904232115 | 91 | 46 | 8.0 | 16.0 | 0.00 | 0.00 | 0.00 | 21 | 1018.1 |
| 20260904232014 | 91 | 82 | 7.0 | 16.0 | 0.00 | 0.00 | 0.00 | 20 | 1018.1 |
| 20260904231915 | 91 | 119 | 7.0 | 16.0 | 0.00 | 0.00 | 0.00 | 20 | 1018.1 |
| 20260904231824 | 91 | 105 | 7.0 | 16.0 | 0.00 | 0.00 | 0.00 | 20 | 1018.1 |
| 20260904231509 | 92 | 65 | 6.0 | 12.0 | 0.00 | 0.00 | 0.00 | 19 | 1018.1 |
| 20260904231409 | 92 | 55 | 6.0 | 12.0 | 0.00 | 0.00 | 0.00 | 21 | 1018.1 |
| 20260904231308 | 92 | 135 | 6.0 | 12.0 | 0.00 | 0.00 | 0.00 | 20 | 1018.1 |
| 20260904231205 | 92 | 96 | 6.0 | 12.0 | 0.00 | 0.00 | 0.00 | 19 | 1018.1 |
| 20260904231104 | 92 | 103 | 6.0 | 12.0 | 0.00 | 0.00 | 0.00 | 21 | 1018.1 |
| 20260904231003 | 92 | 109 | 6.0 | 12.0 | 0.00 | 0.00 | 0.00 | 19 | 1018.0 |
| 20260904230914 | 92 | 82 | 5.0 | 12.0 | 0.00 | 0.00 | 0.00 | 19 | 1018.1 |
| 20260904230907 | 92 | 94 | 5.0 | 12.0 | 0.00 | 0.00 | 0.00 | 18 | 1018.1 |
| 20260904230656 | 92 | 42 | 5.0 | 12.0 | 0.00 | 0.00 | 0.00 | 18 | 1018.0 |
| 20260904230604 | 92 | 58 | 5.0 | 9.0 | 0.00 | 0.00 | 0.00 | 18 | 1018.1 |
| 20260904230357 | 92 | 46 | 5.0 | 9.0 | 0.00 | 0.00 | 0.00 | 17 | 1018.1 |
| 20260904230255 | 92 | 25 | 5.0 | 9.0 | 0.00 | 0.00 | 0.00 | 18 | 1018.1 |
| 20260904230156 | 92 | 67 | 5.0 | 9.0 | 0.00 | 0.00 | 0.00 | 17 | 1018.0 |
| 20260904225949 | 93 | 54 | 5.0 | 9.0 | 0.00 | 0.00 | 0.00 | 17 | 1018.1 |
| 20260904225849 | 93 | 73 | 5.0 | 9.0 | 0.00 | 0.00 | 0.00 | 17 | 1018.1 |
| 20260904225750 | 93 | 90 | 5.0 | 9.0 | 0.00 | 0.00 | 0.00 | 17 | 1018.1 |
| 20260904225542 | 93 | 68 | 4.0 | 9.0 | 0.00 | 0.00 | 0.00 | 18 | 1018.0 |
| 20260904225500 | 93 | 86 | 4.0 | 8.0 | 0.00 | 0.00 | 0.00 | 17 | 1018.0 |
| 20260904225346 | 93 | 59 | 4.0 | 11.0 | 0.00 | 0.00 | 0.00 | 17 | 1018.0 |
| 20260904225143 | 93 | 76 | 4.0 | 12.0 | 0.00 | 0.00 | 0.00 | 17 | 1018.0 |
| 20260904224943 | 93 | 28 | 4.0 | 12.0 | 0.00 | 0.00 | 0.00 | 17 | 1018.1 |
| 20260904224736 | 94 | 63 | 4.0 | 12.0 | 0.00 | 0.00 | 0.00 | 16 | 1018.1 |
| 20260904224631 | 94 | 52 | 4.0 | 12.0 | 0.00 | 0.00 | 0.00 | 17 | 1018.1 |
| 20260904224538 | 94 | 96 | 4.0 | 12.0 | 0.00 | 0.00 | 0.00 | 16 | 1018.3 |
| 20260904224341 | 94 | 58 | 4.0 | 12.0 | 0.00 | 0.00 | 0.00 | 16 | 1018.1 |
| 20260904224230 | 94 | 36 | 3.0 | 10.0 | 0.00 | 0.00 | 0.00 | 16 | 1018.1 |
| 20260904224128 | 94 | 96 | 3.0 | 10.0 | 0.00 | 0.00 | 0.00 | 17 | 1018.1 |
| 20260904224026 | 94 | 60 | 3.0 | 10.0 | 0.00 | 0.00 | 0.00 | 17 | 1018.1 |
| 20260904223928 | 94 | 79 | 3.0 | 10.0 | 0.00 | 0.00 | 0.00 | 16 | 1018.1 |
| 20260904223826 | 94 | 79 | 3.0 | 10.0 | 0.00 | 0.00 | 0.00 | 16 | 1018.1 |
| 20260904223724 | 94 | 105 | 3.0 | 10.0 | 0.00 | 0.00 | 0.00 | 16 | 1018.1 |
| 20260904223620 | 94 | 86 | 3.0 | 10.0 | 0.00 | 0.00 | 0.00 | 16 | 1018.3 |
| 20260904223520 | 94 | 95 | 2.0 | 10.0 | 0.00 | 0.00 | 0.00 | 17 | 1018.1 |
| 20260904223419 | 94 | 94 | 2.0 | 9.0 | 0.00 | 0.00 | 0.00 | 17 | 1018.3 |
| 20260904223318 | 94 | 134 | 2.0 | 5.0 | 0.00 | 0.00 | 0.00 | 17 | 1018.1 |
| 20260904223218 | 93 | 9 | 2.0 | 8.0 | 0.00 | 0.00 | 0.00 | 17 | 1018.1 |
| 20260904223118 | 93 | 9 | 2.0 | 8.0 | 0.00 | 0.00 | 0.00 | 17 | 1018.1 |
| 20260904223022 | 93 | 115 | 2.0 | 8.0 | 0.00 | 0.00 | 0.00 | 19 | 1018.1 |
| 20260904222815 | 93 | 115 | 3.0 | 11.0 | 0.00 | 0.00 | 0.00 | 17 | 1018.3 |
| 20260904222713 | 93 | 107 | 3.0 | 11.0 | 0.00 | 0.00 | 0.00 | 18 | 1018.3 |
| 20260904222606 | 93 | 26 | 3.0 | 11.0 | 0.00 | 0.00 | 0.00 | 18 | 1018.3 |
| 20260904222507 | 93 | 26 | 3.0 | 11.0 | 0.00 | 0.00 | 0.00 | 17 | 1018.3 |
| 20260904222407 | 93 | 26 | 3.0 | 11.0 | 0.00 | 0.00 | 0.00 | 18 | 1018.3 |
| 20260904222307 | 93 | 35 | 3.0 | 11.0 | 0.00 | 0.00 | 0.00 | 17 | 1018.1 |
| 20260904222206 | 93 | 63 | 3.0 | 11.0 | 0.00 | 0.00 | 0.00 | 18 | 1018.1 |
| 20260904222103 | 93 | 32 | 3.0 | 11.0 | 0.00 | 0.00 | 0.00 | 18 | 1018.1 |
| 20260904222001 | 93 | 78 | 4.0 | 11.0 | 0.00 | 0.00 | 0.00 | 18 | 1018.3 |
| 20260904221901 | 93 | 133 | 4.0 | 10.0 | 0.00 | 0.00 | 0.00 | 18 | 1018.3 |
| 20260904221812 | 93 | 141 | 4.0 | 10.0 | 0.00 | 0.00 | 0.00 | 16 | 1018.3 |
| 20260904221700 | 93 | 63 | 4.0 | 10.0 | 0.00 | 0.00 | 0.00 | 16 | 1018.3 |
| 20260904221557 | 93 | 87 | 3.0 | 10.0 | 0.00 | 0.00 | 0.00 | 17 | 1018.3 |
| 20260904221455 | 93 | 93 | 4.0 | 10.0 | 0.00 | 0.00 | 0.00 | 16 | 1018.3 |
| 20260904221402 | 94 | 93 | 4.0 | 10.0 | 0.00 | 0.00 | 0.00 | 16 | 1018.3 |
| 20260904221156 | 94 | 128 | 4.0 | 10.0 | 0.00 | 0.00 | 0.00 | 16 | 1018.4 |
| 20260904220949 | 94 | 104 | 3.0 | 10.0 | 0.00 | 0.00 | 0.00 | 17 | 1018.4 |
| 20260904220849 | 94 | 98 | 2.0 | 10.0 | 0.00 | 0.00 | 0.00 | 16 | 1018.4 |
| 20260904220749 | 94 | 94 | 2.0 | 5.0 | 0.00 | 0.00 | 0.00 | 16 | 1018.4 |
| 20260904220651 | 94 | 108 | 2.0 | 6.0 | 0.00 | 0.00 | 0.00 | 17 | 1018.4 |
| 20260904220445 | 94 | 114 | 2.0 | 6.0 | 0.00 | 0.00 | 0.00 | 17 | 1018.4 |
| 20260904220344 | 94 | 72 | 2.0 | 7.0 | 0.00 | 0.00 | 0.00 | 19 | 1018.4 |
| 20260904220244 | 94 | 98 | 2.0 | 8.0 | 0.00 | 0.00 | 0.00 | 17 | 1018.4 |
| 20260904220142 | 94 | 71 | 3.0 | 8.0 | 0.00 | 0.00 | 0.00 | 17 | 1018.4 |
| 20260904220043 | 94 | 58 | 3.0 | 8.0 | 0.00 | 0.00 | 0.00 | 16 | 1018.5 |
| 20260904215837 | 93 | 110 | 3.0 | 8.0 | 0.00 | 0.00 | 0.00 | 18 | 1018.5 |
| 20260904215737 | 93 | 115 | 4.0 | 8.0 | 0.00 | 0.00 | 0.00 | 17 | 1018.4 |
| 20260904215636 | 93 | 155 | 4.0 | 9.0 | 0.00 | 0.00 | 0.00 | 17 | 1018.5 |
| 20260904215540 | 93 | 155 | 5.0 | 9.0 | 0.00 | 0.00 | 0.00 | 17 | 1018.5 |
| 20260904215333 | 93 | 122 | 4.0 | 9.0 | 0.00 | 0.00 | 0.00 | 17 | 1018.5 |
| 20260904215242 | 93 | 133 | 4.0 | 9.0 | 0.00 | 0.00 | 0.00 | 18 | 1018.5 |
| 20260904215235 | 93 | 170 | 4.0 | 9.0 | 0.00 | 0.00 | 0.00 | 17 | 1018.5 |
| 20260904215027 | 93 | 98 | 5.0 | 9.0 | 0.00 | 0.00 | 0.00 | 17 | 1018.5 |
| 20260904214924 | 93 | 86 | 5.0 | 9.0 | 0.00 | 0.00 | 0.00 | 17 | 1018.5 |
| 20260904214824 | 93 | 65 | 5.0 | 9.0 | 0.00 | 0.00 | 0.00 | 18 | 1018.4 |
| 20260904214736 | 93 | 22 | 4.0 | 9.0 | 0.00 | 0.00 | 0.00 | 17 | 1018.5 |
| 20260904214728 | 93 | 59 | 4.0 | 9.0 | 0.00 | 0.00 | 0.00 | 18 | 1018.4 |
| 20260904214550 | 93 | 59 | 5.0 | 11.0 | 0.00 | 0.00 | 0.00 | 16 | 1018.5 |
| 20260904214437 | 94 | 242 | 6.0 | 12.0 | 0.00 | 0.00 | 0.00 | 18 | 1018.5 |
| 20260904214013 | 94 | 82 | 5.0 | 12.0 | 0.00 | 0.00 | 0.00 | 17 | 1018.6 |
| 20260904213927 | 94 | 81 | 4.0 | 12.0 | 0.00 | 0.00 | 0.00 | 17 | 1018.5 |
| 20260904213612 | 94 | 103 | 3.0 | 12.0 | 0.00 | 0.00 | 0.00 | 16 | 1018.6 |
| 20260904213507 | 94 | 102 | 3.0 | 12.0 | 0.00 | 0.00 | 0.00 | 16 | 1018.5 |
| 20260904213407 | 94 | 119 | 2.0 | 12.0 | 0.00 | 0.00 | 0.00 | 19 | 1018.5 |
| 20260904213306 | 94 | 120 | 2.0 | 11.0 | 0.00 | 0.00 | 0.00 | 17 | 1018.5 |
| 20260904213206 | 94 | 211 | 2.0 | 9.0 | 0.00 | 0.00 | 0.00 | 17 | 1018.6 |
| 20260904213106 | 94 | 46 | 2.0 | 9.0 | 0.00 | 0.00 | 0.00 | 16 | 1018.6 |
| 20260904213003 | 94 | 190 | 3.0 | 9.0 | 0.00 | 0.00 | 0.00 | 17 | 1018.6 |
| 20260904212903 | 94 | 190 | 3.0 | 9.0 | 0.00 | 0.00 | 0.00 | 17 | 1018.6 |
| 20260904212802 | 94 | 190 | 3.0 | 10.0 | 0.00 | 0.00 | 0.00 | 16 | 1018.6 |
| 20260904212702 | 94 | 169 | 4.0 | 10.0 | 0.00 | 0.00 | 0.00 | 16 | 1018.6 |
| 20260904212600 | 94 | 192 | 4.0 | 10.0 | 0.00 | 0.00 | 0.00 | 16 | 1018.6 |
| 20260904212454 | 94 | 212 | 4.0 | 10.0 | 0.00 | 0.00 | 0.00 | 17 | 1018.6 |
| 20260904212355 | 94 | 212 | 5.0 | 10.0 | 0.00 | 0.00 | 0.00 | 17 | 1018.6 |
| 20260904212255 | 94 | 216 | 4.0 | 10.0 | 0.00 | 0.00 | 0.00 | 18 | 1018.7 |
| 20260904212154 | 94 | 188 | 4.0 | 10.0 | 0.00 | 0.00 | 0.00 | 17 | 1018.6 |
| 20260904212054 | 94 | 164 | 4.0 | 10.0 | 0.00 | 0.00 | 0.00 | 17 | 1018.6 |
| 20260904211954 | 93 | 153 | 4.0 | 10.0 | 0.00 | 0.00 | 0.00 | 17 | 1018.6 |
| 20260904211858 | 93 | 161 | 4.0 | 10.0 | 0.00 | 0.00 | 0.00 | 17 | 1018.7 |
| 20260904211650 | 93 | 157 | 4.0 | 10.0 | 0.00 | 0.00 | 0.00 | 18 | 1018.6 |
| 20260904211549 | 93 | 153 | 4.0 | 10.0 | 0.00 | 0.00 | 0.00 | 17 | 1018.7 |
| 20260904211442 | 93 | 107 | 4.0 | 10.0 | 0.00 | 0.00 | 0.00 | 17 | 1018.7 |
| 20260904211343 | 93 | 47 | 3.0 | 10.0 | 0.00 | 0.00 | 0.00 | 17 | 1018.6 |
| 20260904211243 | 93 | 69 | 4.0 | 10.0 | 0.00 | 0.00 | 0.00 | 16 | 1018.6 |
| 20260904211142 | 93 | 91 | 5.0 | 11.0 | 0.00 | 0.00 | 0.00 | 16 | 1018.7 |
| 20260904211042 | 94 | 74 | 4.0 | 11.0 | 0.00 | 0.00 | 0.00 | 16 | 1018.7 |
| 20260904210937 | 94 | 49 | 4.0 | 11.0 | 0.00 | 0.00 | 0.00 | 18 | 1018.7 |
| 20260904210843 | 94 | 184 | 5.0 | 11.0 | 0.00 | 0.00 | 0.00 | 17 | 1018.7 |
| 20260904210637 | 94 | 140 | 5.0 | 11.0 | 0.00 | 0.00 | 0.00 | 16 | 1018.7 |
| 20260904210536 | 94 | 164 | 5.0 | 11.0 | 0.00 | 0.00 | 0.00 | 17 | 1018.7 |
| 20260904210430 | 94 | 166 | 5.0 | 11.0 | 0.00 | 0.00 | 0.00 | 17 | 1018.7 |
| 20260904210330 | 94 | 162 | 5.0 | 11.0 | 0.00 | 0.00 | 0.00 | 16 | 1018.8 |
| 20260904210231 | 94 | 165 | 4.0 | 11.0 | 0.00 | 0.00 | 0.00 | 17 | 1018.8 |
| 20260904210131 | 94 | 162 | 4.0 | 9.0 | 0.00 | 0.00 | 0.00 | 16 | 1018.8 |
| 20260904210030 | 94 | 144 | 4.0 | 9.0 | 0.00 | 0.00 | 0.00 | 17 | 1018.8 |
| 20260904205924 | 94 | 169 | 4.0 | 9.0 | 0.00 | 0.00 | 0.00 | 17 | 1018.8 |
| 20260904205825 | 94 | 117 | 4.0 | 9.0 | 0.00 | 0.00 | 0.00 | 20 | 1018.8 |
| 20260904205724 | 94 | 139 | 4.0 | 9.0 | 0.00 | 0.00 | 0.00 | 19 | 1018.8 |
| 20260904205635 | 94 | 173 | 4.0 | 9.0 | 0.00 | 0.00 | 0.00 | 17 | 1019.0 |
| 20260904205525 | 94 | 139 | 4.0 | 9.0 | 0.00 | 0.00 | 0.00 | 17 | 1018.8 |
| 20260904205421 | 93 | 146 | 4.0 | 9.0 | 0.00 | 0.00 | 0.00 | 18 | 1019.0 |
| 20260904205320 | 93 | 107 | 4.0 | 9.0 | 0.00 | 0.00 | 0.00 | 18 | 1019.0 |
| 20260904205227 | 93 | 113 | 4.0 | 9.0 | 0.00 | 0.00 | 0.00 | 18 | 1019.0 |
| 20260904205022 | 93 | 115 | 5.0 | 10.0 | 0.00 | 0.00 | 0.00 | 17 | 1019.0 |
| 20260904204813 | 93 | 170 | 5.0 | 10.0 | 0.00 | 0.00 | 0.00 | 18 | 1019.1 |
| 20260904204713 | 93 | 128 | 5.0 | 10.0 | 0.00 | 0.00 | 0.00 | 17 | 1019.1 |
| 20260904204613 | 93 | 33 | 6.0 | 15.0 | 0.00 | 0.00 | 0.00 | 17 | 1019.1 |
| 20260904204512 | 93 | 104 | 6.0 | 15.0 | 0.00 | 0.00 | 0.00 | 17 | 1019.1 |
| 20260904204415 | 93 | 90 | 6.0 | 15.0 | 0.00 | 0.00 | 0.00 | 17 | 1019.1 |
| 20260904204209 | 93 | 42 | 6.0 | 15.0 | 0.00 | 0.00 | 0.00 | 18 | 1019.1 |
| 20260904204109 | 93 | 78 | 6.0 | 15.0 | 0.00 | 0.00 | 0.00 | 17 | 1019.1 |
| 20260904204006 | 93 | 109 | 7.0 | 15.0 | 0.00 | 0.00 | 0.00 | 17 | 1019.1 |
| 20260904203901 | 93 | 120 | 7.0 | 15.0 | 0.00 | 0.00 | 0.00 | 17 | 1019.1 |
| 20260904203807 | 93 | 111 | 7.0 | 15.0 | 0.00 | 0.00 | 0.00 | 18 | 1019.2 |
| 20260904203601 | 92 | 124 | 7.0 | 12.0 | 0.00 | 0.00 | 0.00 | 17 | 1019.1 |
| 20260904203500 | 92 | 130 | 7.0 | 13.0 | 0.00 | 0.00 | 0.00 | 18 | 1019.2 |
| 20260904203402 | 92 | 86 | 7.0 | 13.0 | 0.00 | 0.00 | 0.00 | 18 | 1019.2 |
| 20260904203154 | 92 | 87 | 7.0 | 13.0 | 0.00 | 0.00 | 0.00 | 17 | 1019.2 |
| 20260904203054 | 92 | 130 | 7.0 | 13.0 | 0.00 | 0.00 | 0.00 | 18 | 1019.2 |
| 20260904202954 | 92 | 106 | 7.0 | 13.0 | 0.00 | 0.00 | 0.00 | 19 | 1019.2 |
| 20260904202849 | 92 | 81 | 8.0 | 13.0 | 0.00 | 0.00 | 0.00 | 17 | 1019.2 |
| 20260904202749 | 92 | 75 | 8.0 | 13.0 | 0.00 | 0.00 | 0.00 | 18 | 1019.3 |
| 20260904202649 | 92 | 78 | 8.0 | 13.0 | 0.00 | 0.00 | 0.00 | 17 | 1019.2 |
| 20260904202600 | 92 | 63 | 8.0 | 13.0 | 0.00 | 0.00 | 0.00 | 18 | 1019.3 |
| 20260904202553 | 92 | 121 | 8.0 | 13.0 | 0.00 | 0.00 | 0.00 | 19 | 1019.2 |
| 20260904202343 | 92 | 92 | 8.0 | 15.0 | 0.00 | 0.00 | 0.00 | 18 | 1019.3 |
| 20260904202256 | 92 | 126 | 8.0 | 15.0 | 0.00 | 0.00 | 0.00 | 18 | 1019.3 |
| 20260904201945 | 92 | 104 | 7.0 | 15.0 | 0.00 | 0.00 | 0.00 | 19 | 1019.3 |
| 20260904201739 | 92 | 80 | 7.0 | 15.0 | 0.00 | 0.00 | 0.00 | 18 | 1019.3 |
| 20260904201639 | 92 | 71 | 8.0 | 15.0 | 0.00 | 0.00 | 0.00 | 17 | 1019.3 |
| 20260904201539 | 92 | 78 | 7.0 | 15.0 | 0.00 | 0.00 | 0.00 | 18 | 1019.4 |
| 20260904201436 | 92 | 69 | 7.0 | 15.0 | 0.00 | 0.00 | 0.00 | 18 | 1019.4 |
| 20260904201337 | 92 | 68 | 6.0 | 14.0 | 0.00 | 0.00 | 0.00 | 17 | 1019.4 |
| 20260904201130 | 91 | 173 | 7.0 | 14.0 | 0.00 | 0.00 | 0.00 | 18 | 1019.4 |
| 20260904201031 | 91 | 98 | 6.0 | 14.0 | 0.00 | 0.00 | 0.00 | 19 | 1019.4 |
| 20260904200930 | 91 | 80 | 6.0 | 12.0 | 0.00 | 0.00 | 0.00 | 19 | 1019.4 |
| 20260904200826 | 91 | 80 | 6.0 | 12.0 | 0.00 | 0.00 | 0.00 | 19 | 1019.4 |
| 20260904200727 | 91 | 64 | 6.0 | 12.0 | 0.00 | 0.00 | 0.00 | 18 | 1019.4 |
| 20260904200627 | 91 | 98 | 6.0 | 12.0 | 0.00 | 0.00 | 0.00 | 18 | 1019.6 |
| 20260904200527 | 91 | 110 | 6.0 | 13.0 | 0.00 | 0.00 | 0.00 | 19 | 1019.4 |
| 20260904200424 | 91 | 73 | 6.0 | 13.0 | 0.00 | 0.00 | 0.00 | 20 | 1019.3 |
| 20260904200320 | 91 | 0 | 7.0 | 13.0 | 0.00 | 0.00 | 0.00 | 17 | 1019.4 |
| 20260904200218 | 91 | 70 | 7.0 | 13.0 | 0.00 | 0.00 | 0.00 | 18 | 1019.4 |
| 20260904200119 | 91 | 23 | 7.0 | 15.0 | 0.00 | 0.00 | 0.00 | 18 | 1019.4 |
| 20260904200019 | 91 | 36 | 8.0 | 15.0 | 0.00 | 0.00 | 0.00 | 19 | 1019.6 |
| 20260904195920 | 91 | 51 | 8.0 | 15.0 | 0.00 | 0.00 | 0.00 | 18 | 1019.6 |
| 20260904195712 | 91 | 180 | 8.0 | 15.0 | 0.00 | 0.00 | 0.00 | 19 | 1019.6 |
| 20260904195619 | 91 | 101 | 8.0 | 15.0 | 0.00 | 0.00 | 0.00 | 18 | 1019.6 |
| 20260904195412 | 91 | 44 | 8.0 | 15.0 | 0.00 | 0.00 | 0.00 | 18 | 1019.7 |
| 20260904195307 | 91 | 57 | 8.0 | 15.0 | 0.00 | 0.00 | 0.00 | 18 | 1019.7 |
| 20260904195206 | 91 | 92 | 7.0 | 15.0 | 0.00 | 0.00 | 0.00 | 18 | 1019.7 |
| 20260904195106 | 91 | 88 | 7.0 | 13.0 | 0.00 | 0.00 | 0.00 | 18 | 1019.6 |
| 20260904195018 | 91 | 63 | 7.0 | 13.0 | 0.00 | 0.00 | 0.00 | 19 | 1019.6 |
| 20260904194907 | 91 | 57 | 7.0 | 12.0 | 0.00 | 0.00 | 0.00 | 19 | 1019.6 |
| 20260904194801 | 90 | 65 | 7.0 | 13.0 | 0.00 | 0.00 | 0.00 | 19 | 1019.6 |
| 20260904194701 | 90 | 120 | 7.0 | 13.0 | 0.00 | 0.00 | 0.00 | 18 | 1019.7 |
| 20260904194600 | 90 | 94 | 7.0 | 13.0 | 0.00 | 0.00 | 0.00 | 18 | 1019.7 |
| 20260904194500 | 90 | 77 | 7.0 | 13.0 | 0.00 | 0.00 | 0.00 | 18 | 1019.7 |
| 20260904194400 | 90 | 65 | 8.0 | 13.0 | 0.00 | 0.00 | 0.00 | 17 | 1019.6 |
| 20260904194257 | 91 | 86 | 8.0 | 15.0 | 0.00 | 0.00 | 0.00 | 18 | 1019.7 |
| 20260904194157 | 91 | 117 | 8.0 | 15.0 | 0.00 | 0.00 | 0.00 | 18 | 1019.7 |
| 20260904194057 | 91 | 96 | 8.0 | 15.0 | 0.00 | 0.00 | 0.00 | 18 | 1019.7 |
| 20260904193956 | 91 | 61 | 8.0 | 15.0 | 0.00 | 0.00 | 0.00 | 17 | 1019.7 |
| 20260904193855 | 91 | 97 | 8.0 | 15.0 | 0.00 | 0.00 | 0.00 | 18 | 1019.8 |
| 20260904193648 | 92 | 65 | 7.0 | 15.0 | 0.00 | 0.00 | 0.00 | 18 | 1019.7 |
| 20260904193549 | 92 | 82 | 6.0 | 15.0 | 0.00 | 0.00 | 0.00 | 18 | 1019.8 |
| 20260904193459 | 92 | 116 | 6.0 | 15.0 | 0.00 | 0.00 | 0.00 | 18 | 1019.7 |
| 20260904193453 | 92 | 62 | 5.0 | 13.0 | 0.00 | 0.00 | 0.00 | 18 | 1019.8 |
| 20260904193251 | 92 | 69 | 5.0 | 13.0 | 0.00 | 0.00 | 0.00 | 18 | 1019.8 |
| 20260904193043 | 91 | 135 | 5.0 | 13.0 | 0.00 | 0.00 | 0.00 | 18 | 1019.7 |
| 20260904192942 | 91 | 119 | 5.0 | 11.0 | 0.00 | 0.00 | 0.00 | 19 | 1019.7 |
| 20260904192843 | 91 | 147 | 5.0 | 11.0 | 0.00 | 0.00 | 0.00 | 20 | 1019.7 |
| 20260904192736 | 91 | 140 | 5.0 | 11.0 | 0.00 | 0.00 | 0.00 | 18 | 1019.8 |
| 20260904192637 | 91 | 96 | 5.0 | 11.0 | 0.00 | 0.00 | 0.00 | 18 | 1019.8 |
| 20260904192544 | 91 | 112 | 5.0 | 11.0 | 0.00 | 0.00 | 0.00 | 20 | 1019.8 |
| 20260904192336 | 91 | 94 | 6.0 | 16.0 | 0.00 | 0.00 | 0.00 | 17 | 1019.8 |
| 20260904192230 | 91 | 86 | 7.0 | 17.0 | 0.00 | 0.00 | 0.00 | 18 | 1019.8 |
| 20260904192131 | 90 | 165 | 7.0 | 17.0 | 0.00 | 0.00 | 0.00 | 18 | 1019.9 |
| 20260904192038 | 90 | 119 | 6.0 | 17.0 | 0.00 | 0.00 | 0.00 | 18 | 1019.8 |
| 20260904191830 | 91 | 46 | 7.0 | 17.0 | 0.00 | 0.00 | 0.00 | 18 | 1019.9 |
| 20260904191724 | 91 | 124 | 8.0 | 17.0 | 0.00 | 0.00 | 0.00 | 18 | 1019.8 |
| 20260904191625 | 91 | 119 | 8.0 | 17.0 | 0.00 | 0.00 | 0.00 | 17 | 1019.8 |
| 20260904191524 | 91 | 82 | 8.0 | 17.0 | 0.00 | 0.00 | 0.00 | 16 | 1019.9 |
| 20260904191424 | 92 | 94 | 7.0 | 17.0 | 0.00 | 0.00 | 0.00 | 16 | 1019.9 |
| 20260904191328 | 92 | 74 | 7.0 | 16.0 | 0.00 | 0.00 | 0.00 | 18 | 1019.9 |
| 20260904191324 | 92 | 84 | 7.0 | 13.0 | 0.00 | 0.00 | 0.00 | 18 | 1019.9 |
| 20260904191223 | 92 | 44 | 7.0 | 13.0 | 0.00 | 0.00 | 0.00 | 18 | 1019.9 |
| 20260904191123 | 91 | 96 | 7.0 | 13.0 | 0.00 | 0.00 | 0.00 | 18 | 1019.9 |
| 20260904191023 | 91 | 139 | 7.0 | 13.0 | 0.00 | 0.00 | 0.00 | 18 | 1019.9 |
| 20260904190922 | 91 | 93 | 7.0 | 13.0 | 0.00 | 0.00 | 0.00 | 19 | 1020.0 |
| 20260904190827 | 91 | 117 | 7.0 | 13.0 | 0.00 | 0.00 | 0.00 | 18 | 1019.9 |
| 20260904190822 | 91 | 105 | 7.0 | 13.0 | 0.00 | 0.00 | 0.00 | 18 | 1019.9 |
| 20260904190723 | 91 | 102 | 6.0 | 13.0 | 0.00 | 0.00 | 0.00 | 19 | 1019.9 |
| 20260904190647 | 91 | 111 | 6.0 | 13.0 | 0.00 | 0.00 | 0.00 | 18 | 1019.9 |
| 20260904190534 | 91 | 88 | 6.0 | 12.0 | 0.00 | 0.00 | 0.00 | 19 | 1019.9 |
| 20260904190223 | 91 | 125 | 7.0 | 13.0 | 0.00 | 0.00 | 0.00 | 17 | 1020.0 |
| 20260904190122 | 91 | 165 | 7.0 | 13.0 | 0.00 | 0.00 | 0.00 | 17 | 1020.0 |
| 20260904190023 | 91 | 166 | 7.0 | 13.0 | 0.00 | 0.00 | 0.00 | 18 | 1020.0 |
| 20260904185937 | 91 | 114 | 8.0 | 13.0 | 0.00 | 0.00 | 0.00 | 20 | 1020.0 |
| 20260904185822 | 91 | 155 | 8.0 | 13.0 | 0.00 | 0.00 | 0.00 | 18 | 1020.0 |
| 20260904185730 | 91 | 134 | 8.0 | 13.0 | 0.00 | 0.00 | 0.00 | 18 | 1020.0 |
| 20260904185516 | 90 | 81 | 9.0 | 14.0 | 0.00 | 0.00 | 0.00 | 17 | 1020.2 |
| 20260904185433 | 90 | 117 | 9.0 | 14.0 | 0.00 | 0.00 | 0.00 | 18 | 1020.2 |
| 20260904185316 | 90 | 127 | 9.0 | 14.0 | 0.00 | 0.00 | 0.00 | 17 | 1020.2 |
| 20260904185217 | 90 | 119 | 9.0 | 14.0 | 0.00 | 0.00 | 0.00 | 19 | 1020.2 |
| 20260904185116 | 90 | 40 | 9.0 | 14.0 | 0.00 | 0.00 | 0.00 | 18 | 1020.2 |
| 20260904185010 | 90 | 75 | 9.0 | 14.0 | 0.00 | 0.00 | 0.00 | 18 | 1020.2 |
| 20260904184911 | 90 | 64 | 9.0 | 14.0 | 0.00 | 0.00 | 0.00 | 18 | 1020.3 |
| 20260904184824 | 90 | 65 | 9.0 | 14.0 | 0.00 | 0.00 | 0.00 | 19 | 1020.2 |
| 20260904184811 | 90 | 59 | 9.0 | 14.0 | 0.00 | 0.00 | 0.00 | 19 | 1020.2 |
| 20260904184711 | 90 | 101 | 8.0 | 14.0 | 0.00 | 0.00 | 0.00 | 19 | 1020.2 |
| 20260904184612 | 90 | 89 | 8.0 | 14.0 | 0.00 | 0.00 | 0.00 | 18 | 1020.2 |
| 20260904184404 | 90 | 128 | 7.0 | 14.0 | 0.00 | 0.00 | 0.00 | 18 | 1020.3 |
| 20260904184322 | 90 | 140 | 8.0 | 14.0 | 0.00 | 0.00 | 0.00 | 18 | 1020.3 |
| 20260904184304 | 90 | 130 | 8.0 | 14.0 | 0.00 | 0.00 | 0.00 | 18 | 1020.3 |
| 20260904184204 | 90 | 123 | 7.0 | 14.0 | 0.00 | 0.00 | 0.00 | 19 | 1020.2 |
| 20260904184104 | 90 | 102 | 7.0 | 14.0 | 0.00 | 0.00 | 0.00 | 19 | 1020.2 |
| 20260904184005 | 91 | 101 | 7.0 | 14.0 | 0.00 | 0.00 | 0.00 | 17 | 1020.2 |
| 20260904183821 | 91 | 105 | 7.0 | 14.0 | 0.00 | 0.00 | 0.00 | 19 | 1020.2 |
| 20260904183758 | 90 | 75 | 7.0 | 14.0 | 0.00 | 0.00 | 0.00 | 19 | 1020.2 |
| 20260904183659 | 90 | 90 | 7.0 | 15.0 | 0.00 | 0.00 | 0.00 | 19 | 1020.2 |
| 20260904183558 | 90 | 56 | 7.0 | 15.0 | 0.00 | 0.00 | 0.00 | 20 | 1020.3 |
| 20260904183511 | 90 | 121 | 7.0 | 15.0 | 0.00 | 0.00 | 0.00 | 19 | 1020.2 |
| 20260904183358 | 90 | 106 | 7.0 | 15.0 | 0.00 | 0.00 | 0.00 | 20 | 1020.3 |
| 20260904183159 | 90 | 111 | 7.0 | 15.0 | 0.00 | 0.00 | 0.00 | 19 | 1020.4 |
| 20260904182951 | 90 | 119 | 7.0 | 15.0 | 0.00 | 0.00 | 0.00 | 19 | 1020.4 |
| 20260904182851 | 89 | 111 | 7.0 | 15.0 | 0.00 | 0.00 | 0.00 | 17 | 1020.3 |
| 20260904182822 | 90 | 117 | 7.0 | 15.0 | 0.00 | 0.00 | 0.00 | 17 | 1020.3 |
| 20260904182751 | 89 | 117 | 7.0 | 15.0 | 0.00 | 0.00 | 0.00 | 19 | 1020.3 |
| 20260904182648 | 89 | 108 | 7.0 | 15.0 | 0.00 | 0.00 | 0.00 | 18 | 1020.4 |
| 20260904182548 | 90 | 100 | 8.0 | 15.0 | 0.00 | 0.00 | 0.00 | 19 | 1020.4 |
| 20260904182449 | 90 | 72 | 7.0 | 15.0 | 0.00 | 0.00 | 0.00 | 21 | 1020.4 |
| 20260904182348 | 90 | 63 | 8.0 | 16.0 | 0.00 | 0.00 | 0.00 | 19 | 1020.4 |
| 20260904182321 | 90 | 101 | 8.0 | 16.0 | 0.00 | 0.00 | 0.00 | 19 | 1020.4 |
| 20260904182248 | 90 | 89 | 8.0 | 16.0 | 0.00 | 0.00 | 0.00 | 19 | 1020.4 |
| 20260904182147 | 90 | 130 | 7.0 | 16.0 | 0.00 | 0.00 | 0.00 | 20 | 1020.5 |
| 20260904182047 | 89 | 104 | 7.0 | 16.0 | 0.00 | 0.00 | 0.00 | 20 | 1020.5 |
| 20260904181946 | 89 | 150 | 7.0 | 16.0 | 0.00 | 0.00 | 0.00 | 22 | 1020.4 |
| 20260904181846 | 89 | 163 | 7.0 | 16.0 | 0.00 | 0.00 | 0.00 | 17 | 1020.4 |
| 20260904181822 | 89 | 159 | 8.0 | 16.0 | 0.00 | 0.00 | 0.00 | 17 | 1020.5 |
| 20260904181751 | 89 | 128 | 8.0 | 16.0 | 0.00 | 0.00 | 0.00 | 19 | 1020.5 |
| 20260904181545 | 89 | 120 | 7.0 | 16.0 | 0.00 | 0.00 | 0.00 | 21 | 1020.5 |
| 20260904181451 | 89 | 137 | 7.0 | 16.0 | 0.00 | 0.00 | 0.00 | 20 | 1020.5 |
| 20260904181322 | 89 | 153 | 7.0 | 13.0 | 0.00 | 0.00 | 0.00 | 19 | 1020.5 |
| 20260904181244 | 89 | 126 | 7.0 | 13.0 | 0.00 | 0.00 | 0.00 | 19 | 1020.5 |
| 20260904181151 | 89 | 121 | 7.0 | 12.0 | 0.00 | 0.00 | 0.00 | 21 | 1020.5 |
| 20260904180944 | 89 | 138 | 7.0 | 14.0 | 0.00 | 0.00 | 0.00 | 19 | 1020.6 |
| 20260904180844 | 89 | 111 | 7.0 | 14.0 | 0.00 | 0.00 | 0.00 | 19 | 1020.6 |
| 20260904180821 | 89 | 81 | 7.0 | 14.0 | 0.00 | 0.00 | 0.00 | 18 | 1020.6 |
| 20260904180742 | 89 | 128 | 7.0 | 14.0 | 0.00 | 0.00 | 0.00 | 18 | 1020.6 |
| 20260904180642 | 89 | 90 | 7.0 | 14.0 | 0.00 | 0.00 | 0.00 | 19 | 1020.6 |
| 20260904180541 | 89 | 148 | 7.0 | 14.0 | 0.00 | 0.00 | 0.00 | 19 | 1020.6 |
| 20260904180441 | 89 | 145 | 7.0 | 14.0 | 0.00 | 0.00 | 0.00 | 18 | 1020.6 |
| 20260904180340 | 89 | 103 | 7.0 | 14.0 | 0.00 | 0.00 | 0.00 | 17 | 1020.6 |
| 20260904180322 | 89 | 121 | 7.0 | 14.0 | 0.00 | 0.00 | 0.00 | 17 | 1020.6 |
| 20260904180240 | 89 | 103 | 7.0 | 14.0 | 0.00 | 0.00 | 0.00 | 17 | 1020.6 |
| 20260904180140 | 89 | 120 | 7.0 | 14.0 | 0.00 | 0.00 | 0.00 | 19 | 1020.6 |
| 20260904180046 | 89 | 105 | 6.0 | 12.0 | 0.00 | 0.00 | 0.00 | 19 | 1020.6 |
| 20260904175840 | 89 | 116 | 6.0 | 12.0 | 0.00 | 0.00 | 0.00 | 19 | 1020.6 |
| 20260904175821 | 89 | 69 | 6.0 | 12.0 | 0.00 | 0.00 | 0.00 | 19 | 1020.6 |
| 20260904175740 | 89 | 77 | 6.0 | 12.0 | 0.00 | 0.00 | 0.00 | 20 | 1020.6 |
| 20260904175640 | 89 | 146 | 6.0 | 12.0 | 0.00 | 0.00 | 0.00 | 21 | 1020.6 |
| 20260904175541 | 89 | 136 | 7.0 | 12.0 | 0.00 | 0.00 | 0.00 | 19 | 1020.6 |
| 20260904175441 | 89 | 95 | 7.0 | 12.0 | 0.00 | 0.00 | 0.00 | 19 | 1020.6 |
| 20260904175340 | 89 | 85 | 7.0 | 15.0 | 0.00 | 0.00 | 0.00 | 20 | 1020.7 |
| 20260904175321 | 89 | 123 | 7.0 | 15.0 | 0.00 | 0.00 | 0.00 | 20 | 1020.6 |
| 20260904175247 | 89 | 61 | 7.0 | 15.0 | 0.00 | 0.00 | 0.00 | 19 | 1020.6 |
| 20260904175041 | 89 | 102 | 7.0 | 15.0 | 0.00 | 0.00 | 0.00 | 18 | 1020.7 |
| 20260904174948 | 89 | 103 | 7.0 | 15.0 | 0.00 | 0.00 | 0.00 | 19 | 1020.7 |
| 20260904174820 | 89 | 124 | 7.0 | 15.0 | 0.00 | 0.00 | 0.00 | 21 | 1020.7 |
| 20260904174741 | 89 | 135 | 7.0 | 15.0 | 0.00 | 0.00 | 0.00 | 19 | 1020.7 |
| 20260904174640 | 89 | 115 | 7.0 | 15.0 | 0.00 | 0.00 | 0.00 | 19 | 1020.7 |
| 20260904174540 | 89 | 119 | 7.0 | 15.0 | 0.00 | 0.00 | 0.00 | 20 | 1020.7 |
| 20260904174459 | 89 | 138 | 7.0 | 15.0 | 0.00 | 0.00 | 0.00 | 19 | 1020.6 |
| 20260904174452 | 89 | 117 | 6.0 | 13.0 | 0.00 | 0.00 | 0.00 | 20 | 1020.6 |
| 20260904174141 | 89 | 168 | 6.0 | 13.0 | 0.00 | 0.00 | 0.00 | 20 | 1020.7 |
| 20260904174045 | 89 | 88 | 6.0 | 13.0 | 0.00 | 0.00 | 0.00 | 21 | 1020.6 |
| 20260904173820 | 89 | 105 | 6.0 | 13.0 | 0.00 | 0.00 | 0.00 | 20 | 1020.7 |
| 20260904173738 | 89 | 100 | 6.0 | 13.0 | 0.00 | 0.00 | 0.00 | 21 | 1020.6 |
| 20260904173638 | 89 | 124 | 6.0 | 13.0 | 0.00 | 0.00 | 0.00 | 20 | 1020.6 |
| 20260904173538 | 89 | 112 | 6.0 | 13.0 | 0.00 | 0.00 | 0.00 | 19 | 1020.6 |
| 20260904173438 | 89 | 117 | 6.0 | 13.0 | 0.00 | 0.00 | 0.00 | 19 | 1020.7 |
| 20260904173332 | 89 | 144 | 6.0 | 13.0 | 0.00 | 0.00 | 0.00 | 21 | 1020.7 |
| 20260904173320 | 89 | 133 | 6.0 | 15.0 | 0.00 | 0.00 | 0.00 | 21 | 1020.7 |
| 20260904173232 | 89 | 154 | 6.0 | 15.0 | 0.00 | 0.00 | 0.00 | 20 | 1020.7 |
| 20260904173130 | 88 | 127 | 6.0 | 15.0 | 0.00 | 0.00 | 0.00 | 22 | 1020.6 |
| 20260904173050 | 88 | 108 | 7.0 | 15.0 | 0.00 | 0.00 | 0.00 | 22 | 1020.6 |
| 20260904172936 | 88 | 183 | 7.0 | 15.0 | 0.00 | 0.00 | 0.00 | 20 | 1020.7 |
| 20260904172624 | 87 | 138 | 7.0 | 15.0 | 0.00 | 0.00 | 0.00 | 21 | 1020.6 |
| 20260904172538 | 87 | 139 | 7.0 | 15.0 | 0.00 | 0.00 | 0.00 | 21 | 1020.7 |
| 20260904172320 | 87 | 144 | 8.0 | 14.0 | 0.00 | 0.00 | 0.00 | 20 | 1020.7 |
| 20260904172221 | 87 | 127 | 7.0 | 15.0 | 0.00 | 0.00 | 0.00 | 23 | 1020.7 |
| 20260904172121 | 87 | 128 | 8.0 | 15.0 | 0.00 | 0.00 | 0.00 | 21 | 1020.7 |
| 20260904172027 | 87 | 175 | 8.0 | 15.0 | 0.00 | 0.00 | 0.00 | 21 | 1020.7 |
| 20260904171820 | 87 | 119 | 8.0 | 15.0 | 0.00 | 0.00 | 0.00 | 20 | 1020.7 |
| 20260904171720 | 87 | 121 | 8.0 | 15.0 | 0.00 | 0.00 | 0.00 | 20 | 1020.7 |
| 20260904171620 | 87 | 123 | 8.0 | 15.0 | 0.00 | 0.00 | 0.00 | 21 | 1020.7 |
| 20260904171520 | 87 | 116 | 8.0 | 15.0 | 0.00 | 0.00 | 0.00 | 20 | 1020.7 |
| 20260904171420 | 87 | 108 | 8.0 | 15.0 | 0.00 | 0.00 | 0.00 | 22 | 1020.7 |
| 20260904171322 | 87 | 91 | 7.0 | 15.0 | 0.00 | 0.00 | 0.00 | 23 | 1020.9 |
| 20260904171318 | 87 | 106 | 7.0 | 15.0 | 0.00 | 0.00 | 0.00 | 23 | 1020.9 |
| 20260904171225 | 87 | 97 | 8.0 | 13.0 | 0.00 | 0.00 | 0.00 | 23 | 1020.7 |
| 20260904171019 | 87 | 100 | 8.0 | 15.0 | 0.00 | 0.00 | 0.00 | 23 | 1020.7 |
| 20260904170918 | 87 | 196 | 8.0 | 15.0 | 0.00 | 0.00 | 0.00 | 22 | 1020.7 |
| 20260904170822 | 87 | 130 | 8.0 | 15.0 | 0.00 | 0.00 | 0.00 | 22 | 1020.9 |
| 20260904170818 | 87 | 138 | 8.0 | 15.0 | 0.00 | 0.00 | 0.00 | 22 | 1020.9 |
| 20260904170718 | 87 | 148 | 8.0 | 15.0 | 0.00 | 0.00 | 0.00 | 21 | 1020.7 |
| 20260904170614 | 87 | 84 | 7.0 | 15.0 | 0.00 | 0.00 | 0.00 | 22 | 1020.9 |
| 20260904170530 | 87 | 97 | 7.0 | 15.0 | 0.00 | 0.00 | 0.00 | 22 | 1020.7 |
| 20260904170416 | 87 | 123 | 7.0 | 15.0 | 0.00 | 0.00 | 0.00 | 22 | 1020.9 |
| 20260904170212 | 87 | 96 | 7.0 | 14.0 | 0.00 | 0.00 | 0.00 | 23 | 1020.9 |
| 20260904170113 | 87 | 116 | 7.0 | 14.0 | 0.00 | 0.00 | 0.00 | 25 | 1020.9 |
| 20260904165906 | 87 | 98 | 7.0 | 14.0 | 0.00 | 0.00 | 0.00 | 22 | 1020.9 |
| 20260904165821 | 87 | 110 | 6.0 | 14.0 | 0.00 | 0.00 | 0.00 | 24 | 1020.9 |
| 20260904165807 | 87 | 122 | 6.0 | 14.0 | 0.00 | 0.00 | 0.00 | 24 | 1020.9 |
| 20260904165707 | 87 | 124 | 6.0 | 14.0 | 0.00 | 0.00 | 0.00 | 25 | 1020.9 |
| 20260904165613 | 87 | 109 | 6.0 | 14.0 | 0.00 | 0.00 | 0.00 | 23 | 1020.7 |
| 20260904165426 | 87 | 97 | 6.0 | 14.0 | 0.00 | 0.00 | 0.00 | 22 | 1020.7 |
| 20260904165306 | 87 | 108 | 6.0 | 14.0 | 0.00 | 0.00 | 0.00 | 24 | 1020.9 |
| 20260904165206 | 86 | 116 | 6.0 | 14.0 | 0.00 | 0.00 | 0.00 | 24 | 1020.7 |
| 20260904165113 | 86 | 151 | 6.0 | 13.0 | 0.00 | 0.00 | 0.00 | 25 | 1020.7 |
| 20260904164904 | 86 | 148 | 5.0 | 13.0 | 0.00 | 0.00 | 0.00 | 28 | 1020.9 |
| 20260904164819 | 86 | 148 | 6.0 | 11.0 | 0.00 | 0.00 | 0.00 | 28 | 1020.9 |
| 20260904164811 | 86 | 119 | 6.0 | 11.0 | 0.00 | 0.00 | 0.00 | 24 | 1020.9 |
| 20260904164614 | 85 | 145 | 6.0 | 11.0 | 0.00 | 0.00 | 0.00 | 26 | 1020.9 |
| 20260904164320 | 85 | 115 | 6.0 | 11.0 | 0.00 | 0.00 | 0.00 | 25 | 1020.9 |
| 20260904164301 | 85 | 141 | 6.0 | 11.0 | 0.00 | 0.00 | 0.00 | 24 | 1020.9 |
| 20260904164200 | 85 | 0 | 6.0 | 11.0 | 0.00 | 0.00 | 0.00 | 27 | 1020.9 |
| 20260904164100 | 85 | 103 | 6.0 | 11.0 | 0.00 | 0.00 | 0.00 | 26 | 1020.9 |
| 20260904164001 | 85 | 130 | 6.0 | 11.0 | 0.00 | 0.00 | 0.00 | 26 | 1020.9 |
| 20260904163920 | 85 | 110 | 6.0 | 11.0 | 0.00 | 0.00 | 0.00 | 26 | 1020.7 |
| 20260904163800 | 85 | 108 | 6.0 | 11.0 | 0.00 | 0.00 | 0.00 | 27 | 1020.9 |
| 20260904163700 | 85 | 154 | 5.0 | 11.0 | 0.00 | 0.00 | 0.00 | 26 | 1020.7 |
| 20260904163601 | 84 | 153 | 6.0 | 11.0 | 0.00 | 0.00 | 0.00 | 30 | 1020.9 |
| 20260904163500 | 84 | 128 | 6.0 | 11.0 | 0.00 | 0.00 | 0.00 | 27 | 1020.7 |
| 20260904163358 | 84 | 136 | 6.0 | 11.0 | 0.00 | 0.00 | 0.00 | 27 | 1020.7 |
| 20260904163314 | 84 | 117 | 6.0 | 11.0 | 0.00 | 0.00 | 0.00 | 26 | 1020.7 |
| 20260904163258 | 84 | 133 | 6.0 | 11.0 | 0.00 | 0.00 | 0.00 | 26 | 1020.7 |
| 20260904163158 | 84 | 123 | 6.0 | 11.0 | 0.00 | 0.00 | 0.00 | 27 | 1020.7 |
| 20260904163058 | 84 | 165 | 6.0 | 11.0 | 0.00 | 0.00 | 0.00 | 26 | 1020.7 |
| 20260904162959 | 84 | 123 | 6.0 | 11.0 | 0.00 | 0.00 | 0.00 | 26 | 1020.7 |
| 20260904162856 | 84 | 112 | 6.0 | 11.0 | 0.00 | 0.00 | 0.00 | 26 | 1020.7 |
| 20260904162813 | 84 | 102 | 6.0 | 11.0 | 0.00 | 0.00 | 0.00 | 26 | 1020.7 |
| 20260904162756 | 84 | 96 | 6.0 | 11.0 | 0.00 | 0.00 | 0.00 | 26 | 1020.7 |
| 20260904162656 | 83 | 130 | 6.0 | 11.0 | 0.00 | 0.00 | 0.00 | 27 | 1020.7 |
| 20260904162603 | 83 | 151 | 6.0 | 11.0 | 0.00 | 0.00 | 0.00 | 26 | 1020.7 |
| 20260904162421 | 83 | 130 | 5.0 | 11.0 | 0.00 | 0.00 | 0.00 | 26 | 1020.9 |
| 20260904162254 | 83 | 125 | 5.0 | 11.0 | 0.00 | 0.00 | 0.00 | 28 | 1020.7 |
| 20260904162154 | 83 | 103 | 5.0 | 11.0 | 0.00 | 0.00 | 0.00 | 27 | 1020.9 |
| 20260904162054 | 83 | 124 | 5.0 | 9.0 | 0.00 | 0.00 | 0.00 | 27 | 1020.9 |
| 20260904161954 | 83 | 119 | 5.0 | 9.0 | 0.00 | 0.00 | 0.00 | 28 | 1020.9 |
| 20260904161854 | 83 | 175 | 5.0 | 9.0 | 0.00 | 0.00 | 0.00 | 29 | 1020.9 |
| 20260904161813 | 83 | 132 | 5.0 | 9.0 | 0.00 | 0.00 | 0.00 | 29 | 1020.7 |
| 20260904161752 | 83 | 121 | 5.0 | 9.0 | 0.00 | 0.00 | 0.00 | 29 | 1020.7 |
| 20260904161653 | 83 | 146 | 5.0 | 9.0 | 0.00 | 0.00 | 0.00 | 29 | 1020.9 |
| 20260904161552 | 83 | 141 | 5.0 | 9.0 | 0.00 | 0.00 | 0.00 | 30 | 1020.9 |
| 20260904161448 | 82 | 128 | 4.0 | 9.0 | 0.00 | 0.00 | 0.00 | 29 | 1020.9 |
| 20260904161348 | 82 | 92 | 4.0 | 9.0 | 0.00 | 0.00 | 0.00 | 28 | 1020.7 |
| 20260904161313 | 82 | 135 | 4.0 | 9.0 | 0.00 | 0.00 | 0.00 | 27 | 1020.7 |
| 20260904161248 | 82 | 105 | 4.0 | 9.0 | 0.00 | 0.00 | 0.00 | 27 | 1020.7 |
| 20260904161148 | 82 | 127 | 4.0 | 9.0 | 0.00 | 0.00 | 0.00 | 28 | 1020.9 |
| 20260904161049 | 82 | 132 | 4.0 | 9.0 | 0.00 | 0.00 | 0.00 | 28 | 1020.9 |
| 20260904160956 | 82 | 136 | 4.0 | 9.0 | 0.00 | 0.00 | 0.00 | 30 | 1020.7 |
| 20260904160814 | 82 | 151 | 5.0 | 9.0 | 0.00 | 0.00 | 0.00 | 31 | 1020.9 |
| 20260904160747 | 82 | 124 | 5.0 | 9.0 | 0.00 | 0.00 | 0.00 | 29 | 1020.9 |
| 20260904160646 | 82 | 135 | 5.0 | 9.0 | 0.00 | 0.00 | 0.00 | 29 | 1020.9 |
| 20260904160546 | 82 | 107 | 5.0 | 9.0 | 0.00 | 0.00 | 0.00 | 29 | 1020.9 |
| 20260904160446 | 82 | 128 | 5.0 | 9.0 | 0.00 | 0.00 | 0.00 | 29 | 1020.7 |
| 20260904160418 | 81 | 140 | 5.0 | 9.0 | 0.00 | 0.00 | 0.00 | 29 | 1020.7 |
| 20260904160240 | 81 | 103 | 5.0 | 9.0 | 0.00 | 0.00 | 0.00 | 29 | 1020.7 |
| 20260904160140 | 81 | 122 | 5.0 | 9.0 | 0.00 | 0.00 | 0.00 | 29 | 1020.7 |
| 20260904160047 | 81 | 114 | 5.0 | 9.0 | 0.00 | 0.00 | 0.00 | 29 | 1020.7 |
| 20260904155840 | 81 | 103 | 5.0 | 9.0 | 0.00 | 0.00 | 0.00 | 30 | 1020.7 |
| 20260904155810 | 81 | 145 | 5.0 | 9.0 | 0.00 | 0.00 | 0.00 | 30 | 1020.7 |
| 20260904155741 | 81 | 113 | 5.0 | 9.0 | 0.00 | 0.00 | 0.00 | 30 | 1020.7 |
| 20260904155640 | 81 | 138 | 4.0 | 9.0 | 0.00 | 0.00 | 0.00 | 30 | 1020.9 |
| 20260904155540 | 81 | 142 | 5.0 | 9.0 | 0.00 | 0.00 | 0.00 | 30 | 1020.6 |
| 20260904155440 | 81 | 91 | 4.0 | 9.0 | 0.00 | 0.00 | 0.00 | 30 | 1020.7 |
| 20260904155340 | 81 | 111 | 4.0 | 9.0 | 0.00 | 0.00 | 0.00 | 30 | 1020.7 |
| 20260904155309 | 81 | 126 | 4.0 | 9.0 | 0.00 | 0.00 | 0.00 | 32 | 1020.7 |
| 20260904155241 | 81 | 117 | 4.0 | 9.0 | 0.00 | 0.00 | 0.00 | 31 | 1020.7 |
| 20260904155141 | 80 | 86 | 4.0 | 9.0 | 0.00 | 0.00 | 0.00 | 31 | 1020.7 |
| 20260904155034 | 80 | 144 | 4.0 | 9.0 | 0.00 | 0.00 | 0.00 | 32 | 1020.7 |
| 20260904154934 | 80 | 126 | 4.0 | 9.0 | 0.00 | 0.00 | 0.00 | 32 | 1020.7 |
| 20260904154917 | 80 | 132 | 4.0 | 9.0 | 0.00 | 0.00 | 0.00 | 30 | 1020.6 |
| 20260904154734 | 80 | 147 | 4.0 | 9.0 | 0.00 | 0.00 | 0.00 | 30 | 1020.7 |
| 20260904154634 | 80 | 142 | 4.0 | 9.0 | 0.00 | 0.00 | 0.00 | 30 | 1020.7 |
| 20260904154534 | 80 | 115 | 4.0 | 9.0 | 0.00 | 0.00 | 0.00 | 30 | 1020.7 |
| 20260904154434 | 80 | 165 | 4.0 | 8.0 | 0.00 | 0.00 | 0.00 | 29 | 1020.7 |
| 20260904154334 | 79 | 117 | 4.0 | 9.0 | 0.00 | 0.00 | 0.00 | 29 | 1020.7 |
| 20260904154309 | 79 | 116 | 4.0 | 9.0 | 0.00 | 0.00 | 0.00 | 29 | 1020.7 |
| 20260904154235 | 79 | 131 | 4.0 | 9.0 | 0.00 | 0.00 | 0.00 | 29 | 1020.6 |
| 20260904154135 | 79 | 140 | 4.0 | 9.0 | 0.00 | 0.00 | 0.00 | 29 | 1020.7 |
| 20260904154034 | 79 | 132 | 5.0 | 9.0 | 0.00 | 0.00 | 0.00 | 29 | 1020.7 |
| 20260904153957 | 79 | 163 | 4.0 | 9.0 | 0.00 | 0.00 | 0.00 | 29 | 1020.7 |
| 20260904153950 | 78 | 160 | 4.0 | 9.0 | 0.00 | 0.00 | 0.00 | 29 | 1020.6 |
| 20260904153532 | 78 | 98 | 4.0 | 9.0 | 0.00 | 0.00 | 0.00 | 30 | 1020.7 |
| 20260904153439 | 78 | 149 | 4.0 | 9.0 | 0.00 | 0.00 | 0.00 | 30 | 1020.6 |
| 20260904153309 | 77 | 166 | 4.0 | 8.0 | 0.00 | 0.00 | 0.00 | 30 | 1020.6 |
| 20260904153232 | 77 | 143 | 4.0 | 8.0 | 0.00 | 0.00 | 0.00 | 30 | 1020.6 |
| 20260904153132 | 77 | 121 | 4.0 | 8.0 | 0.00 | 0.00 | 0.00 | 30 | 1020.6 |
| 20260904153031 | 77 | 115 | 4.0 | 8.0 | 0.00 | 0.00 | 0.00 | 30 | 1020.6 |
| 20260904152932 | 76 | 138 | 5.0 | 9.0 | 0.00 | 0.00 | 0.00 | 31 | 1020.6 |
| 20260904152844 | 76 | 107 | 5.0 | 10.0 | 0.00 | 0.00 | 0.00 | 32 | 1020.6 |
| 20260904152837 | 76 | 140 | 5.0 | 10.0 | 0.00 | 0.00 | 0.00 | 32 | 1020.6 |
| 20260904152633 | 75 | 104 | 5.0 | 10.0 | 0.00 | 0.00 | 0.00 | 32 | 1020.6 |
| 20260904152532 | 75 | 161 | 5.0 | 10.0 | 0.00 | 0.00 | 0.00 | 32 | 1020.5 |
| 20260904152439 | 75 | 169 | 5.0 | 10.0 | 0.00 | 0.00 | 0.00 | 31 | 1020.6 |
| 20260904152309 | 74 | 144 | 5.0 | 10.0 | 0.00 | 0.00 | 0.00 | 31 | 1020.5 |
| 20260904152232 | 74 | 151 | 5.0 | 10.0 | 0.00 | 0.00 | 0.00 | 33 | 1020.5 |
| 20260904152132 | 74 | 182 | 5.0 | 10.0 | 0.00 | 0.00 | 0.00 | 34 | 1020.5 |
| 20260904152032 | 74 | 134 | 5.0 | 10.0 | 0.00 | 0.00 | 0.00 | 33 | 1020.5 |
| 20260904151935 | 73 | 119 | 4.0 | 10.0 | 0.00 | 0.00 | 0.00 | 33 | 1020.5 |
| 20260904151809 | 73 | 129 | 4.0 | 10.0 | 0.00 | 0.00 | 0.00 | 34 | 1020.5 |
| 20260904151735 | 73 | 146 | 4.0 | 9.0 | 0.00 | 0.00 | 0.00 | 35 | 1020.5 |
| 20260904151529 | 72 | 155 | 4.0 | 9.0 | 0.00 | 0.00 | 0.00 | 35 | 1020.5 |
| 20260904151428 | 72 | 127 | 4.0 | 9.0 | 0.00 | 0.00 | 0.00 | 36 | 1020.5 |
| 20260904151420 | 72 | 157 | 4.0 | 8.0 | 0.00 | 0.00 | 0.00 | 38 | 1020.5 |
| 20260904151228 | 72 | 127 | 4.0 | 8.0 | 0.00 | 0.00 | 0.00 | 38 | 1020.5 |
| 20260904151128 | 72 | 93 | 4.0 | 8.0 | 0.00 | 0.00 | 0.00 | 38 | 1020.6 |
| 20260904151028 | 72 | 148 | 3.0 | 8.0 | 0.00 | 0.00 | 0.00 | 38 | 1020.5 |
| 20260904150928 | 72 | 112 | 4.0 | 8.0 | 0.00 | 0.00 | 0.00 | 37 | 1020.6 |
| 20260904150828 | 71 | 123 | 3.0 | 8.0 | 0.00 | 0.00 | 0.00 | 39 | 1020.6 |
| 20260904150810 | 71 | 129 | 3.0 | 8.0 | 0.00 | 0.00 | 0.00 | 40 | 1020.6 |
| 20260904150728 | 71 | 105 | 4.0 | 8.0 | 0.00 | 0.00 | 0.00 | 40 | 1020.6 |
| 20260904150629 | 71 | 164 | 4.0 | 8.0 | 0.00 | 0.00 | 0.00 | 41 | 1020.6 |
| 20260904150528 | 71 | 150 | 4.0 | 8.0 | 0.00 | 0.00 | 0.00 | 41 | 1020.6 |
| 20260904150447 | 71 | 160 | 4.0 | 8.0 | 0.00 | 0.00 | 0.00 | 41 | 1020.6 |
| 20260904150440 | 71 | 144 | 4.0 | 8.0 | 0.00 | 0.00 | 0.00 | 41 | 1020.6 |
| 20260904150129 | 71 | 161 | 4.0 | 8.0 | 0.00 | 0.00 | 0.00 | 40 | 1020.5 |
| 20260904150025 | 71 | 153 | 4.0 | 8.0 | 0.00 | 0.00 | 0.00 | 41 | 1020.6 |
| 20260904145924 | 71 | 177 | 4.0 | 8.0 | 0.00 | 0.00 | 0.00 | 41 | 1020.5 |
| 20260904145824 | 70 | 138 | 4.0 | 8.0 | 0.00 | 0.00 | 0.00 | 41 | 1020.5 |
| 20260904145809 | 70 | 123 | 4.0 | 8.0 | 0.00 | 0.00 | 0.00 | 41 | 1020.5 |
| 20260904145731 | 70 | 157 | 4.0 | 8.0 | 0.00 | 0.00 | 0.00 | 40 | 1020.5 |
| 20260904145524 | 70 | 167 | 5.0 | 8.0 | 0.00 | 0.00 | 0.00 | 40 | 1020.5 |
| 20260904145442 | 70 | 150 | 5.0 | 8.0 | 0.00 | 0.00 | 0.00 | 40 | 1020.4 |
| 20260904145328 | 70 | 149 | 5.0 | 8.0 | 0.00 | 0.00 | 0.00 | 40 | 1020.5 |
| 20260904145124 | 70 | 180 | 5.0 | 9.0 | 0.00 | 0.00 | 0.00 | 40 | 1020.4 |
| 20260904145024 | 70 | 120 | 5.0 | 9.0 | 0.00 | 0.00 | 0.00 | 40 | 1020.4 |
| 20260904144932 | 69 | 128 | 5.0 | 9.0 | 0.00 | 0.00 | 0.00 | 40 | 1020.4 |
| 20260904144809 | 69 | 113 | 5.0 | 9.0 | 0.00 | 0.00 | 0.00 | 40 | 1020.4 |
| 20260904144724 | 69 | 161 | 5.0 | 9.0 | 0.00 | 0.00 | 0.00 | 39 | 1020.5 |
| 20260904144623 | 69 | 166 | 4.0 | 9.0 | 0.00 | 0.00 | 0.00 | 40 | 1020.5 |
| 20260904144524 | 69 | 157 | 4.0 | 9.0 | 0.00 | 0.00 | 0.00 | 39 | 1020.4 |
| 20260904144424 | 69 | 157 | 4.0 | 9.0 | 0.00 | 0.00 | 0.00 | 40 | 1020.4 |
| 20260904144324 | 69 | 167 | 4.0 | 9.0 | 0.00 | 0.00 | 0.00 | 39 | 1020.5 |
| 20260904144309 | 69 | 135 | 4.0 | 9.0 | 0.00 | 0.00 | 0.00 | 39 | 1020.5 |
| 20260904144224 | 69 | 171 | 3.0 | 9.0 | 0.00 | 0.00 | 0.00 | 39 | 1020.5 |
| 20260904144127 | 69 | 160 | 3.0 | 9.0 | 0.00 | 0.00 | 0.00 | 40 | 1020.5 |
| 20260904143920 | 68 | 164 | 3.0 | 9.0 | 0.00 | 0.00 | 0.00 | 39 | 1020.4 |
| 20260904143820 | 68 | 165 | 3.0 | 9.0 | 0.00 | 0.00 | 0.00 | 39 | 1020.5 |
| 20260904143809 | 68 | 203 | 3.0 | 9.0 | 0.00 | 0.00 | 0.00 | 39 | 1020.5 |
| 20260904143720 | 68 | 146 | 3.0 | 7.0 | 0.00 | 0.00 | 0.00 | 40 | 1020.4 |
| 20260904143627 | 68 | 134 | 3.0 | 7.0 | 0.00 | 0.00 | 0.00 | 41 | 1020.4 |
| 20260904143420 | 68 | 159 | 4.0 | 8.0 | 0.00 | 0.00 | 0.00 | 40 | 1020.5 |
| 20260904143309 | 67 | 149 | 4.0 | 9.0 | 0.00 | 0.00 | 0.00 | 40 | 1020.5 |
| 20260904143227 | 67 | 180 | 4.0 | 9.0 | 0.00 | 0.00 | 0.00 | 41 | 1020.5 |
| 20260904143020 | 67 | 140 | 5.0 | 9.0 | 0.00 | 0.00 | 0.00 | 40 | 1020.5 |
| 20260904142923 | 67 | 188 | 5.0 | 9.0 | 0.00 | 0.00 | 0.00 | 41 | 1020.5 |
| 20260904142916 | 67 | 173 | 5.0 | 9.0 | 0.00 | 0.00 | 0.00 | 41 | 1020.5 |
| 20260904142720 | 66 | 147 | 5.0 | 9.0 | 0.00 | 0.00 | 0.00 | 40 | 1020.5 |
| 20260904142620 | 66 | 171 | 5.0 | 9.0 | 0.00 | 0.00 | 0.00 | 40 | 1020.5 |
| 20260904142527 | 66 | 122 | 5.0 | 9.0 | 0.00 | 0.00 | 0.00 | 40 | 1020.5 |
| 20260904142320 | 66 | 123 | 4.0 | 9.0 | 0.00 | 0.00 | 0.00 | 41 | 1020.6 |
| 20260904142309 | 65 | 123 | 4.0 | 9.0 | 0.00 | 0.00 | 0.00 | 41 | 1020.6 |
| 20260904142224 | 65 | 157 | 4.0 | 9.0 | 0.00 | 0.00 | 0.00 | 42 | 1020.5 |
| 20260904142016 | 65 | 165 | 3.0 | 9.0 | 0.00 | 0.00 | 0.00 | 41 | 1020.6 |
| 20260904141923 | 65 | 162 | 3.0 | 7.0 | 0.00 | 0.00 | 0.00 | 42 | 1020.5 |
| 20260904141916 | 65 | 168 | 3.0 | 7.0 | 0.00 | 0.00 | 0.00 | 42 | 1020.5 |
| 20260904141717 | 65 | 150 | 3.0 | 8.0 | 0.00 | 0.00 | 0.00 | 42 | 1020.5 |
| 20260904141616 | 65 | 165 | 3.0 | 8.0 | 0.00 | 0.00 | 0.00 | 42 | 1020.4 |
| 20260904141516 | 64 | 126 | 3.0 | 8.0 | 0.00 | 0.00 | 0.00 | 42 | 1020.5 |
| 20260904141423 | 64 | 125 | 3.0 | 8.0 | 0.00 | 0.00 | 0.00 | 42 | 1020.5 |
| 20260904141309 | 64 | 154 | 3.0 | 8.0 | 0.00 | 0.00 | 0.00 | 42 | 1020.5 |
| 20260904141216 | 64 | 123 | 3.0 | 8.0 | 0.00 | 0.00 | 0.00 | 42 | 1020.5 |
| 20260904141116 | 64 | 123 | 3.0 | 8.0 | 0.00 | 0.00 | 0.00 | 42 | 1020.4 |
| 20260904141016 | 64 | 149 | 3.0 | 8.0 | 0.00 | 0.00 | 0.00 | 42 | 1020.4 |
| 20260904140917 | 64 | 150 | 3.0 | 8.0 | 0.00 | 0.00 | 0.00 | 43 | 1020.4 |
| 20260904140816 | 63 | 131 | 2.0 | 8.0 | 0.00 | 0.00 | 0.00 | 43 | 1020.4 |
| 20260904140809 | 63 | 120 | 2.0 | 8.0 | 0.00 | 0.00 | 0.00 | 43 | 1020.4 |
| 20260904140716 | 63 | 136 | 2.0 | 6.0 | 0.00 | 0.00 | 0.00 | 44 | 1020.4 |
| 20260904140616 | 63 | 144 | 2.0 | 6.0 | 0.00 | 0.00 | 0.00 | 45 | 1020.4 |
| 20260904140516 | 63 | 157 | 2.0 | 6.0 | 0.00 | 0.00 | 0.00 | 46 | 1020.4 |
| 20260904140423 | 63 | 173 | 2.0 | 6.0 | 0.00 | 0.00 | 0.00 | 46 | 1020.4 |
| 20260904140312 | 63 | 165 | 2.0 | 6.0 | 0.00 | 0.00 | 0.00 | 47 | 1020.4 |
| 20260904140212 | 63 | 142 | 2.0 | 6.0 | 0.00 | 0.00 | 0.00 | 47 | 1020.4 |
| 20260904140112 | 62 | 118 | 3.0 | 6.0 | 0.00 | 0.00 | 0.00 | 47 | 1020.4 |
| 20260904140012 | 62 | 118 | 3.0 | 6.0 | 0.00 | 0.00 | 0.00 | 47 | 1020.3 |
| 20260904135912 | 62 | 118 | 3.0 | 6.0 | 0.00 | 0.00 | 0.00 | 49 | 1020.4 |
| 20260904135826 | 62 | 126 | 3.0 | 6.0 | 0.00 | 0.00 | 0.00 | 50 | 1020.3 |
| 20260904135512 | 61 | 144 | 3.0 | 6.0 | 0.00 | 0.00 | 0.00 | 49 | 1020.3 |
| 20260904135412 | 61 | 160 | 3.0 | 6.0 | 0.00 | 0.00 | 0.00 | 49 | 1020.2 |
| 20260904135320 | 61 | 160 | 3.0 | 6.0 | 0.00 | 0.00 | 0.00 | 49 | 1020.2 |
| 20260904135112 | 61 | 172 | 2.0 | 6.0 | 0.00 | 0.00 | 0.00 | 48 | 1020.0 |
| 20260904135012 | 61 | 168 | 2.0 | 5.0 | 0.00 | 0.00 | 0.00 | 48 | 1020.0 |
| 20260904134912 | 61 | 181 | 2.0 | 5.0 | 0.00 | 0.00 | 0.00 | 48 | 1020.0 |
| 20260904134812 | 61 | 180 | 2.0 | 5.0 | 0.00 | 0.00 | 0.00 | 47 | 1020.0 |
| 20260904134712 | 61 | 182 | 2.0 | 4.0 | 0.00 | 0.00 | 0.00 | 47 | 1019.9 |
| 20260904134612 | 61 | 194 | 2.0 | 4.0 | 0.00 | 0.00 | 0.00 | 48 | 1019.9 |
| 20260904134512 | 60 | 194 | 2.0 | 4.0 | 0.00 | 0.00 | 0.00 | 48 | 1019.9 |
| 20260904134417 | 60 | 240 | 2.0 | 4.0 | 0.00 | 0.00 | 0.00 | 47 | 1019.9 |
| 20260904134410 | 60 | 240 | 2.0 | 4.0 | 0.00 | 0.00 | 0.00 | 48 | 1019.9 |
| 20260904134206 | 60 | 240 | 2.0 | 4.0 | 0.00 | 0.00 | 0.00 | 48 | 1019.9 |
| 20260904134105 | 60 | 234 | 2.0 | 4.0 | 0.00 | 0.00 | 0.00 | 48 | 1019.8 |
| 20260904134005 | 60 | 234 | 2.0 | 4.0 | 0.00 | 0.00 | 0.00 | 48 | 1019.9 |
| 20260904133904 | 60 | 234 | 2.0 | 4.0 | 0.00 | 0.00 | 0.00 | 48 | 1019.9 |
| 20260904133804 | 60 | 234 | 2.0 | 4.0 | 0.00 | 0.00 | 0.00 | 48 | 1019.9 |
| 20260904133709 | 60 | 227 | 2.0 | 4.0 | 0.00 | 0.00 | 0.00 | 48 | 1019.8 |
| 20260904133459 | 60 | 259 | 2.0 | 4.0 | 0.00 | 0.00 | 0.00 | 48 | 1019.8 |
| 20260904133400 | 60 | 246 | 2.0 | 4.0 | 0.00 | 0.00 | 0.00 | 48 | 1019.8 |
| 20260904133307 | 60 | 225 | 3.0 | 5.0 | 0.00 | 0.00 | 0.00 | 48 | 1019.7 |
| 20260904133258 | 60 | 226 | 3.0 | 5.0 | 0.00 | 0.00 | 0.00 | 48 | 1019.7 |
| 20260904133158 | 60 | 229 | 3.0 | 5.0 | 0.00 | 0.00 | 0.00 | 48 | 1019.7 |
| 20260904133056 | 59 | 229 | 3.0 | 8.0 | 0.00 | 0.00 | 0.00 | 48 | 1019.7 |
| 20260904132956 | 59 | 240 | 3.0 | 8.0 | 0.00 | 0.00 | 0.00 | 48 | 1019.7 |
| 20260904132856 | 59 | 211 | 3.0 | 8.0 | 0.00 | 0.00 | 0.00 | 49 | 1019.7 |
| 20260904132754 | 59 | 252 | 3.0 | 8.0 | 0.00 | 0.00 | 0.00 | 49 | 1019.7 |
| 20260904132701 | 59 | 222 | 3.0 | 8.0 | 0.00 | 0.00 | 0.00 | 49 | 1019.6 |
| 20260904132454 | 0 | 206 | 3.0 | 8.0 | 0.00 | 0.00 | 0.00 | 1019.7 | |
| 20260904132355 | 0 | 208 | 2.0 | 8.0 | 0.00 | 0.00 | 0.00 | 1019.7 | |
| 20260904132258 | 0 | 229 | 2.0 | 8.0 | 0.00 | 0.00 | 0.00 | 1019.7 | |
| 20260904132253 | 0 | 222 | 2.0 | 8.0 | 0.00 | 0.00 | 0.00 | 1019.7 | |
| 20260904132152 | 0 | 223 | 2.0 | 8.0 | 0.00 | 0.00 | 0.00 | 1019.7 | |
| 20260904132059 | 0 | 231 | 2.0 | 7.0 | 0.00 | 0.00 | 0.00 | 1019.7 | |
| 20260904131911 | 0 | 277 | 1.0 | 3.0 | 0.00 | 0.00 | 0.00 | 1019.4 | |
| 20260904131800 | 0 | 277 | 1.0 | 3.0 | 0.00 | 0.00 | 0.00 | 1019.4 | |
| 20260904131446 | 0 | 277 | 1.0 | 3.0 | 0.00 | 0.00 | 0.00 | 1019.6 | |
| 20260904131344 | 0 | 277 | 1.0 | 3.0 | 0.00 | 0.00 | 0.00 | 1019.6 | |
| 20260904131242 | 0 | 277 | 1.0 | 3.0 | 0.00 | 0.00 | 0.00 | 1019.6 | |
| 20260904131147 | 0 | 277 | 1.0 | 3.0 | 0.00 | 0.00 | 0.00 | 1019.6 | |
| 20260904130939 | 0 | 277 | 1.0 | 5.0 | 0.00 | 0.00 | 0.00 | 1019.7 | |
| 20260904130839 | 0 | 277 | 1.0 | 5.0 | 0.00 | 0.00 | 0.00 | 1019.7 | |
| 20260904130751 | 0 | 277 | 1.0 | 5.0 | 0.00 | 0.00 | 0.00 | 1019.7 | |
| 20260904130738 | 0 | 277 | 2.0 | 5.0 | 0.00 | 0.00 | 0.00 | 1019.7 | |
| 20260904130638 | 0 | 277 | 2.0 | 5.0 | 0.00 | 0.00 | 0.00 | 1019.7 | |
| 20260904130538 | 0 | 277 | 2.0 | 5.0 | 0.00 | 0.00 | 0.00 | 1019.8 | |
| 20260904130437 | 0 | 277 | 2.0 | 5.0 | 0.00 | 0.00 | 0.00 | 1019.7 | |
| 20260904130337 | 0 | 277 | 2.0 | 5.0 | 0.00 | 0.00 | 0.00 | 1019.7 | |
| 20260904130250 | 0 | 277 | 2.0 | 5.0 | 0.00 | 0.00 | 0.00 | 1019.7 | |
| 20260904130235 | 0 | 277 | 1.0 | 5.0 | 0.00 | 0.00 | 0.00 | 1019.8 | |
| 20260904130136 | 0 | 277 | 1.0 | 5.0 | 0.00 | 0.00 | 0.00 | 1019.7 | |
| 20260904130032 | 0 | 246 | 1.0 | 5.0 | 0.00 | 0.00 | 0.00 | 1019.7 | |
| 20260904125928 | 0 | 253 | 1.0 | 3.0 | 0.00 | 0.00 | 0.00 | 1019.7 | |
| 20260904125854 | 0 | 240 | 1.0 | 3.0 | 0.00 | 0.00 | 0.00 | 1019.7 | |
| 20260904125727 | 0 | 253 | 1.0 | 3.0 | 0.00 | 0.00 | 0.00 | 1019.7 | |
| 20260904125622 | 0 | 142 | 1.0 | 3.0 | 0.00 | 0.00 | 0.00 | 1019.6 | |
| 20260904125520 | 0 | 142 | 1.0 | 3.0 | 0.00 | 0.00 | 0.00 | 1019.6 | |
| 20260904125420 | 0 | 142 | 1.0 | 3.0 | 0.00 | 0.00 | 0.00 | 1019.6 | |
| 20260904125319 | 0 | 142 | 1.0 | 3.0 | 0.00 | 0.00 | 0.00 | 1019.4 | |
| 20260904125217 | 0 | 142 | 1.0 | 3.0 | 0.00 | 0.00 | 0.00 | 1019.4 | |
| 20260904125119 | 0 | 142 | 1.0 | 3.0 | 0.00 | 0.00 | 0.00 | 1019.6 | |
| 20260904125024 | 0 | 142 | 1.0 | 3.0 | 0.00 | 0.00 | 0.00 | 1019.4 | |
| 20260904124827 | 0 | 142 | 1.0 | 3.0 | 0.00 | 0.00 | 0.00 | 1019.4 | |
| 20260904124820 | 0 | 142 | 1.0 | 3.0 | 0.00 | 0.00 | 0.00 | 1019.4 | |
| 20260904124614 | 0 | 142 | 1.0 | 3.0 | 0.00 | 0.00 | 0.00 | 1019.4 | |
| 20260904124511 | 0 | 142 | 1.0 | 3.0 | 0.00 | 0.00 | 0.00 | 1019.4 | |
| 20260904124418 | 0 | 142 | 1.0 | 3.0 | 0.00 | 0.00 | 0.00 | 1019.3 | |
| 20260904124244 | 0 | 142 | 1.0 | 3.0 | 0.00 | 0.00 | 0.00 | 1019.3 | |
| 20260904124208 | 0 | 142 | 1.0 | 3.0 | 0.00 | 0.00 | 0.00 | 1019.3 | |
| 20260904124107 | 0 | 142 | 1.0 | 3.0 | 0.00 | 0.00 | 0.00 | 1019.3 | |
| 20260904124005 | 0 | 142 | 1.0 | 3.0 | 0.00 | 0.00 | 0.00 | 1019.3 | |
| 20260904123905 | 0 | 142 | 1.0 | 3.0 | 0.00 | 0.00 | 0.00 | 1019.4 | |
| 20260904123850 | 0 | 142 | 1.0 | 3.0 | 0.00 | 0.00 | 0.00 | 1019.4 | |
| 20260904123704 | 0 | 142 | 1.0 | 3.0 | 0.00 | 0.00 | 0.00 | 1019.4 | |
| 20260904123601 | 0 | 142 | 1.0 | 3.0 | 0.00 | 0.00 | 0.00 | 1019.4 | |
| 20260904123459 | 0 | 142 | 1.0 | 2.0 | 0.00 | 0.00 | 0.00 | 1019.4 | |
| 20260904123400 | 0 | 142 | 1.0 | 3.0 | 0.00 | 0.00 | 0.00 | 1019.4 | |
| 20260904123241 | 0 | 142 | 1.0 | 4.0 | 0.00 | 0.00 | 0.00 | 1019.4 | |
| 20260904123207 | 0 | 142 | 1.0 | 4.0 | 0.00 | 0.00 | 0.00 | 1019.4 | |
| 20260904122852 | 0 | 142 | 1.0 | 4.0 | 0.00 | 0.00 | 0.00 | 1019.4 | |
| 20260904122740 | 0 | 142 | 1.0 | 4.0 | 0.00 | 0.00 | 0.00 | 1019.4 | |
| 20260904122656 | 0 | 142 | 1.0 | 4.0 | 0.00 | 0.00 | 0.00 | 1019.6 | |
| 20260904122450 | 0 | 142 | 1.0 | 4.0 | 0.00 | 0.00 | 0.00 | 1019.4 | |
| 20260904122355 | 0 | 142 | 1.0 | 4.0 | 0.00 | 0.00 | 0.00 | 1019.4 | |
| 20260904122239 | 0 | 142 | 1.0 | 7.0 | 0.00 | 0.00 | 0.00 | 1019.4 | |
| 20260904122149 | 0 | 251 | 2.0 | 7.0 | 0.00 | 0.00 | 0.00 | 1019.3 | |
| 20260904122046 | 0 | 251 | 2.0 | 7.0 | 0.00 | 0.00 | 0.00 | 1019.3 | |
| 20260904121944 | 0 | 251 | 2.0 | 7.0 | 0.00 | 0.00 | 0.00 | 1019.3 | |
| 20260904121853 | 0 | 251 | 2.0 | 7.0 | 0.00 | 0.00 | 0.00 | 1019.3 | |
| 20260904121846 | 0 | 251 | 2.0 | 7.0 | 0.00 | 0.00 | 0.00 | 1019.3 | |
| 20260904121642 | 0 | 251 | 2.0 | 7.0 | 0.00 | 0.00 | 0.00 | 1019.3 | |
| 20260904121543 | 0 | 251 | 3.0 | 7.0 | 0.00 | 0.00 | 0.00 | 1019.4 | |
| 20260904121442 | 0 | 257 | 3.0 | 7.0 | 0.00 | 0.00 | 0.00 | 1019.4 | |
| 20260904121339 | 0 | 254 | 2.0 | 7.0 | 0.00 | 0.00 | 0.00 | 1019.3 | |
| 20260904121242 | 0 | 211 | 2.0 | 5.0 | 0.00 | 0.00 | 0.00 | 1019.3 | |
| 20260904121034 | 0 | 164 | 2.0 | 5.0 | 0.00 | 0.00 | 0.00 | 1019.2 | |
| 20260904120934 | 0 | 183 | 2.0 | 5.0 | 0.00 | 0.00 | 0.00 | 1019.2 | |
| 20260904120833 | 0 | 182 | 2.0 | 5.0 | 0.00 | 0.00 | 0.00 | 1019.2 | |
| 20260904120734 | 0 | 148 | 2.0 | 5.0 | 0.00 | 0.00 | 0.00 | 1019.2 | |
| 20260904120634 | 0 | 148 | 2.0 | 5.0 | 0.00 | 0.00 | 0.00 | 1019.2 | |
| 20260904120532 | 0 | 148 | 2.0 | 5.0 | 0.00 | 0.00 | 0.00 | 1019.1 | |
| 20260904120430 | 0 | 148 | 2.0 | 5.0 | 0.00 | 0.00 | 0.00 | 1019.1 | |
| 20260904120341 | 0 | 150 | 2.0 | 4.0 | 0.00 | 0.00 | 0.00 | 1019.1 | |
| 20260904120228 | 0 | 138 | 2.0 | 4.0 | 0.00 | 0.00 | 0.00 | 1019.2 | |
| 20260904120128 | 0 | 169 | 1.0 | 4.0 | 0.00 | 0.00 | 0.00 | 1019.1 | |
| 20260904120026 | 0 | 169 | 1.0 | 4.0 | 0.00 | 0.00 | 0.00 | 1019.1 | |
| 20260904115926 | 0 | 169 | 1.0 | 4.0 | 0.00 | 0.00 | 0.00 | 1019.1 | |
| 20260904115825 | 0 | 169 | 1.0 | 4.0 | 0.00 | 0.00 | 0.00 | 1019.1 | |
| 20260904115723 | 0 | 169 | 1.0 | 4.0 | 0.00 | 0.00 | 0.00 | 1019.1 | |
| 20260904115624 | 0 | 169 | 1.0 | 4.0 | 0.00 | 0.00 | 0.00 | 1019.1 | |
| 20260904115522 | 0 | 169 | 1.0 | 4.0 | 0.00 | 0.00 | 0.00 | 1019.2 | |
| 20260904115421 | 0 | 169 | 1.0 | 4.0 | 0.00 | 0.00 | 0.00 | 1019.1 | |
| 20260904115341 | 0 | 169 | 1.0 | 4.0 | 0.00 | 0.00 | 0.00 | 1019.1 | |
| 20260904115215 | 0 | 169 | 1.0 | 5.0 | 0.00 | 0.00 | 0.00 | 1019.1 | |
| 20260904115110 | 0 | 169 | 2.0 | 5.0 | 0.00 | 0.00 | 0.00 | 1019.2 | |
| 20260904115007 | 0 | 169 | 2.0 | 5.0 | 0.00 | 0.00 | 0.00 | 1019.1 | |
| 20260904114904 | 0 | 169 | 2.0 | 5.0 | 0.00 | 0.00 | 0.00 | 1019.1 | |
| 20260904114803 | 0 | 169 | 2.0 | 5.0 | 0.00 | 0.00 | 0.00 | 1019.1 | |
| 20260904114734 | 0 | 169 | 3.0 | 6.0 | 0.00 | 0.00 | 0.00 | 1019.1 | |
| 20260904114703 | 0 | 169 | 3.0 | 6.0 | 0.00 | 0.00 | 0.00 | 1019.1 | |
| 20260904114603 | 0 | 169 | 3.0 | 10.0 | 0.00 | 0.00 | 0.00 | 1019.1 | |
| 20260904114356 | 0 | 169 | 4.0 | 10.0 | 0.00 | 0.00 | 0.00 | 1019.1 | |
| 20260904114337 | 0 | 169 | 4.0 | 10.0 | 0.00 | 0.00 | 0.00 | 1019.1 | |
| 20260904114154 | 0 | 169 | 4.0 | 10.0 | 0.00 | 0.00 | 0.00 | 1019.2 | |
| 20260904114051 | 0 | 169 | 4.0 | 10.0 | 0.00 | 0.00 | 0.00 | 1019.1 | |
| 20260904113953 | 0 | 169 | 4.0 | 10.0 | 0.00 | 0.00 | 0.00 | 1019.2 | |
| 20260904113744 | 0 | 185 | 4.0 | 10.0 | 0.00 | 0.00 | 0.00 | 1019.1 | |
| 20260904113723 | 0 | 168 | 4.0 | 10.0 | 0.00 | 0.00 | 0.00 | 1019.1 | |
| 20260904113644 | 0 | 194 | 4.0 | 10.0 | 0.00 | 0.00 | 0.00 | 1019.1 | |
| 20260904113542 | 0 | 153 | 3.0 | 7.0 | 0.00 | 0.00 | 0.00 | 1019.1 | |
| 20260904113442 | 0 | 147 | 3.0 | 7.0 | 0.00 | 0.00 | 0.00 | 1019.1 | |
| 20260904113342 | 0 | 149 | 3.0 | 7.0 | 0.00 | 0.00 | 0.00 | 1019.1 | |
| 20260904113240 | 0 | 136 | 3.0 | 7.0 | 0.00 | 0.00 | 0.00 | 1019.1 | |
| 20260904113216 | 0 | 145 | 3.0 | 7.0 | 0.00 | 0.00 | 0.00 | 1019.1 | |
| 20260904113140 | 0 | 158 | 3.0 | 7.0 | 0.00 | 0.00 | 0.00 | 1019.0 | |
| 20260904113039 | 0 | 135 | 3.0 | 7.0 | 0.00 | 0.00 | 0.00 | 1019.0 | |
| 20260904112939 | 0 | 138 | 2.0 | 7.0 | 0.00 | 0.00 | 0.00 | 1019.0 | |
| 20260904112838 | 0 | 136 | 2.0 | 4.0 | 0.00 | 0.00 | 0.00 | 1019.0 | |
| 20260904112737 | 0 | 146 | 2.0 | 4.0 | 0.00 | 0.00 | 0.00 | 1019.0 | |
| 20260904112717 | 0 | 132 | 2.0 | 4.0 | 0.00 | 0.00 | 0.00 | 1019.0 | |
| 20260904112637 | 0 | 129 | 2.0 | 4.0 | 0.00 | 0.00 | 0.00 | 1019.0 | |
| 20260904112540 | 0 | 121 | 2.0 | 4.0 | 0.00 | 0.00 | 0.00 | 1019.0 | |
| 20260904112333 | 0 | 171 | 2.0 | 4.0 | 0.00 | 0.00 | 0.00 | 1019.0 | |
| 20260904112217 | 0 | 171 | 2.0 | 4.0 | 0.00 | 0.00 | 0.00 | 1019.0 | |
| 20260904112130 | 0 | 171 | 1.0 | 4.0 | 0.00 | 0.00 | 0.00 | 1019.0 | |
| 20260904112027 | 0 | 171 | 1.0 | 4.0 | 0.00 | 0.00 | 0.00 | 1019.0 | |
| 20260904111928 | 0 | 171 | 1.0 | 4.0 | 0.00 | 0.00 | 0.00 | 1019.0 | |
| 20260904111825 | 0 | 171 | 1.0 | 4.0 | 0.00 | 0.00 | 0.00 | 1018.8 | |
| 20260904111728 | 0 | 192 | 1.0 | 3.0 | 0.00 | 0.00 | 0.00 | 1019.0 | |
| 20260904111521 | 0 | 192 | 1.0 | 2.0 | 0.00 | 0.00 | 0.00 | 1019.0 | |
| 20260904111417 | 0 | 192 | 1.0 | 2.0 | 0.00 | 0.00 | 0.00 | 1019.0 | |
| 20260904111317 | 0 | 192 | 1.0 | 4.0 | 0.00 | 0.00 | 0.00 | 1019.0 | |
| 20260904111218 | 0 | 192 | 1.0 | 4.0 | 0.00 | 0.00 | 0.00 | 1018.8 | |
| 20260904111116 | 0 | 192 | 1.0 | 4.0 | 0.00 | 0.00 | 0.00 | 1018.8 | |
| 20260904111013 | 0 | 192 | 2.0 | 4.0 | 0.00 | 0.00 | 0.00 | 1018.8 | |
| 20260904110910 | 0 | 192 | 2.0 | 5.0 | 0.00 | 0.00 | 0.00 | 1018.8 | |
| 20260904110808 | 0 | 192 | 2.0 | 5.0 | 0.00 | 0.00 | 0.00 | 1018.8 | |
| 20260904110707 | 0 | 192 | 2.0 | 5.0 | 0.00 | 0.00 | 0.00 | 1018.8 | |
| 20260904110613 | 0 | 192 | 2.0 | 5.0 | 0.00 | 0.00 | 0.00 | 1018.8 | |
| 20260904110406 | 0 | 192 | 2.0 | 5.0 | 0.00 | 0.00 | 0.00 | 1018.8 | |
| 20260904110215 | 0 | 200 | 2.0 | 5.0 | 0.00 | 0.00 | 0.00 | 1018.8 | |
| 20260904110206 | 0 | 200 | 2.0 | 5.0 | 0.00 | 0.00 | 0.00 | 1018.8 | |
| 20260904105959 | 0 | 180 | 2.0 | 5.0 | 0.00 | 0.00 | 0.00 | 1018.8 | |
| 20260904105858 | 0 | 193 | 2.0 | 4.0 | 0.00 | 0.00 | 0.00 | 1018.7 | |
| 20260904105822 | 0 | 196 | 2.0 | 4.0 | 0.00 | 0.00 | 0.00 | 1018.7 | |
| 20260904105709 | 0 | 206 | 1.0 | 3.0 | 0.00 | 0.00 | 0.00 | 1018.6 | |
| 20260904105400 | 0 | 206 | 2.0 | 3.0 | 0.00 | 0.00 | 0.00 | 1018.6 | |
| 20260904105214 | 0 | 206 | 2.0 | 3.0 | 0.00 | 0.00 | 0.00 | 1018.6 | |
| 20260904105154 | 0 | 206 | 2.0 | 3.0 | 0.00 | 0.00 | 0.00 | 1018.6 | |
| 20260904105054 | 0 | 206 | 2.0 | 3.0 | 0.00 | 0.00 | 0.00 | 1018.6 | |
| 20260904104953 | 0 | 206 | 2.0 | 2.0 | 0.00 | 0.00 | 0.00 | 1018.5 | |
| 20260904104853 | 0 | 261 | 2.0 | 2.0 | 0.00 | 0.00 | 0.00 | 1018.5 | |
| 20260904104752 | 59 | 261 | 2.0 | 2.0 | 0.00 | 0.00 | 0.00 | 47 | 1018.5 |
| 20260904104713 | 59 | 261 | 2.0 | 2.0 | 0.00 | 0.00 | 0.00 | 47 | 1018.5 |
| 20260904104652 | 59 | 261 | 2.0 | 2.0 | 0.00 | 0.00 | 0.00 | 47 | 1018.5 |
| 20260904104551 | 59 | 261 | 2.0 | 3.0 | 0.00 | 0.00 | 0.00 | 47 | 1018.4 |
| 20260904104452 | 59 | 261 | 2.0 | 3.0 | 0.00 | 0.00 | 0.00 | 47 | 1018.4 |
| 20260904104353 | 59 | 261 | 2.0 | 3.0 | 0.00 | 0.00 | 0.00 | 47 | 1018.4 |
| 20260904104317 | 59 | 261 | 2.0 | 3.0 | 0.00 | 0.00 | 0.00 | 47 | 1018.4 |
| 20260904104154 | 59 | 261 | 2.0 | 3.0 | 0.00 | 0.00 | 0.00 | 47 | 1018.4 |
| 20260904103947 | 59 | 261 | 2.0 | 3.0 | 0.00 | 0.00 | 0.00 | 47 | 1018.5 |
| 20260904103923 | 59 | 261 | 2.0 | 3.0 | 0.00 | 0.00 | 0.00 | 47 | 1018.6 |
| 20260904103640 | 59 | 261 | 2.0 | 3.0 | 0.00 | 0.00 | 0.00 | 47 | 1018.6 |
| 20260904103538 | 59 | 261 | 2.0 | 3.0 | 0.00 | 0.00 | 0.00 | 47 | 1018.6 |
| 20260904103439 | 59 | 261 | 2.0 | 4.0 | 0.00 | 0.00 | 0.00 | 47 | 1018.6 |
| 20260904103335 | 59 | 261 | 2.0 | 4.0 | 0.00 | 0.00 | 0.00 | 47 | 1018.6 |
| 20260904103206 | 59 | 261 | 2.0 | 4.0 | 0.00 | 0.00 | 0.00 | 47 | 1018.6 |
| 20260904103135 | 59 | 261 | 2.0 | 4.0 | 0.00 | 0.00 | 0.00 | 47 | 1018.5 |
| 20260904103031 | 59 | 261 | 2.0 | 4.0 | 0.00 | 0.00 | 0.00 | 47 | 1018.6 |
| 20260904102925 | 59 | 261 | 2.0 | 4.0 | 0.00 | 0.00 | 0.00 | 47 | 1018.5 |
| 20260904102825 | 59 | 261 | 2.0 | 4.0 | 0.00 | 0.00 | 0.00 | 47 | 1018.5 |
| 20260904102705 | 59 | 261 | 2.0 | 4.0 | 0.00 | 0.00 | 0.00 | 47 | 1018.5 |
| 20260904102626 | 59 | 261 | 2.0 | 4.0 | 0.00 | 0.00 | 0.00 | 48 | 1018.5 |
| 20260904102532 | 59 | 261 | 2.0 | 4.0 | 0.00 | 0.00 | 0.00 | 48 | 1018.4 |
| 20260904102324 | 59 | 261 | 2.0 | 4.0 | 0.00 | 0.00 | 0.00 | 49 | 1018.5 |
| 20260904102221 | 59 | 261 | 1.0 | 4.0 | 0.00 | 0.00 | 0.00 | 49 | 1018.4 |
| 20260904102159 | 59 | 188 | 1.0 | 3.0 | 0.00 | 0.00 | 0.00 | 49 | 1018.4 |
| 20260904102122 | 59 | 188 | 1.0 | 3.0 | 0.00 | 0.00 | 0.00 | 49 | 1018.4 |
| 20260904102020 | 59 | 188 | 2.0 | 3.0 | 0.00 | 0.00 | 0.00 | 50 | 1018.4 |
| 20260904101916 | 59 | 188 | 2.0 | 3.0 | 0.00 | 0.00 | 0.00 | 49 | 1018.4 |
| 20260904101813 | 59 | 188 | 2.0 | 3.0 | 0.00 | 0.00 | 0.00 | 49 | 1018.4 |
| 20260904101713 | 59 | 188 | 2.0 | 3.0 | 0.00 | 0.00 | 0.00 | 50 | 1018.4 |
| 20260904101654 | 59 | 188 | 2.0 | 3.0 | 0.00 | 0.00 | 0.00 | 50 | 1018.4 |
| 20260904101614 | 59 | 188 | 2.0 | 3.0 | 0.00 | 0.00 | 0.00 | 50 | 1018.5 |
| 20260904101513 | 59 | 188 | 2.0 | 3.0 | 0.00 | 0.00 | 0.00 | 50 | 1018.4 |
| 20260904101410 | 59 | 188 | 2.0 | 3.0 | 0.00 | 0.00 | 0.00 | 50 | 1018.5 |
| 20260904101310 | 59 | 188 | 2.0 | 3.0 | 0.00 | 0.00 | 0.00 | 50 | 1018.5 |
| 20260904101209 | 59 | 188 | 2.0 | 3.0 | 0.00 | 0.00 | 0.00 | 50 | 1018.5 |
| 20260904101147 | 59 | 188 | 2.0 | 3.0 | 0.00 | 0.00 | 0.00 | 50 | 1018.5 |
| 20260904101109 | 59 | 188 | 2.0 | 3.0 | 0.00 | 0.00 | 0.00 | 50 | 1018.4 |
| 20260904101008 | 59 | 188 | 2.0 | 3.0 | 0.00 | 0.00 | 0.00 | 50 | 1018.5 |
| 20260904100907 | 59 | 188 | 2.0 | 3.0 | 0.00 | 0.00 | 0.00 | 51 | 1018.5 |
| 20260904100806 | 59 | 188 | 1.0 | 3.0 | 0.00 | 0.00 | 0.00 | 51 | 1018.5 |
| 20260904100705 | 59 | 188 | 1.0 | 3.0 | 0.00 | 0.00 | 0.00 | 50 | 1018.5 |
| 20260904100641 | 59 | 188 | 1.0 | 3.0 | 0.00 | 0.00 | 0.00 | 50 | 1018.5 |
| 20260904100604 | 59 | 188 | 1.0 | 3.0 | 0.00 | 0.00 | 0.00 | 51 | 1018.5 |
| 20260904100501 | 59 | 188 | 1.0 | 3.0 | 0.00 | 0.00 | 0.00 | 50 | 1018.5 |
| 20260904100413 | 59 | 188 | 0.0 | 3.0 | 0.00 | 0.00 | 0.00 | 51 | 1018.5 |
| 20260904100135 | 59 | 188 | 0.0 | 2.0 | 0.00 | 0.00 | 0.00 | 51 | 1018.4 |
| 20260904095900 | 59 | 188 | 0.0 | 2.0 | 0.00 | 0.00 | 0.00 | 51 | 1018.4 |
| 20260904095653 | 59 | 188 | 0.0 | 2.0 | 0.00 | 0.00 | 0.00 | 52 | 1018.4 |
| 20260904095630 | 59 | 188 | 1.0 | 2.0 | 0.00 | 0.00 | 0.00 | 52 | 1018.4 |
| 20260904095552 | 59 | 188 | 1.0 | 2.0 | 0.00 | 0.00 | 0.00 | 52 | 1018.4 |
| 20260904095449 | 59 | 188 | 1.0 | 2.0 | 0.00 | 0.00 | 0.00 | 52 | 1018.4 |
| 20260904095355 | 59 | 188 | 1.0 | 2.0 | 0.00 | 0.00 | 0.00 | 52 | 1018.3 |
| 20260904095148 | 59 | 188 | 1.0 | 2.0 | 0.00 | 0.00 | 0.00 | 52 | 1018.3 |
| 20260904095123 | 59 | 188 | 1.0 | 3.0 | 0.00 | 0.00 | 0.00 | 52 | 1018.1 |
| 20260904095046 | 59 | 188 | 1.0 | 3.0 | 0.00 | 0.00 | 0.00 | 52 | 1018.1 |
| 20260904094943 | 59 | 188 | 1.0 | 3.0 | 0.00 | 0.00 | 0.00 | 52 | 1018.1 |
| 20260904094840 | 59 | 188 | 1.0 | 3.0 | 0.00 | 0.00 | 0.00 | 52 | 1018.1 |
| 20260904094739 | 59 | 188 | 1.0 | 3.0 | 0.00 | 0.00 | 0.00 | 53 | 1018.1 |
| 20260904094618 | 59 | 188 | 1.0 | 3.0 | 0.00 | 0.00 | 0.00 | 52 | 1018.1 |
| 20260904094537 | 59 | 188 | 1.0 | 3.0 | 0.00 | 0.00 | 0.00 | 52 | 1018.3 |
| 20260904094437 | 59 | 188 | 1.0 | 3.0 | 0.00 | 0.00 | 0.00 | 52 | 1018.1 |
| 20260904094334 | 59 | 188 | 1.0 | 3.0 | 0.00 | 0.00 | 0.00 | 52 | 1018.1 |
| 20260904094233 | 59 | 180 | 1.0 | 3.0 | 0.00 | 0.00 | 0.00 | 52 | 1018.3 |
| 20260904094142 | 59 | 180 | 1.0 | 3.0 | 0.00 | 0.00 | 0.00 | 52 | 1018.3 |
| 20260904093827 | 59 | 44 | 1.0 | 2.0 | 0.00 | 0.00 | 0.00 | 52 | 1018.3 |
| 20260904093726 | 59 | 44 | 1.0 | 2.0 | 0.00 | 0.00 | 0.00 | 52 | 1018.3 |
| 20260904093604 | 59 | 44 | 1.0 | 2.0 | 0.00 | 0.00 | 0.00 | 52 | 1018.1 |
| 20260904093525 | 59 | 44 | 1.0 | 2.0 | 0.00 | 0.00 | 0.00 | 52 | 1018.1 |
| 20260904093425 | 59 | 44 | 1.0 | 2.0 | 0.00 | 0.00 | 0.00 | 53 | 1018.1 |
| 20260904093322 | 59 | 44 | 1.0 | 2.0 | 0.00 | 0.00 | 0.00 | 53 | 1018.1 |
| 20260904093222 | 59 | 44 | 1.0 | 2.0 | 0.00 | 0.00 | 0.00 | 52 | 1018.1 |
| 20260904093122 | 59 | 44 | 1.0 | 2.0 | 0.00 | 0.00 | 0.00 | 52 | 1018.1 |
| 20260904093058 | 59 | 44 | 1.0 | 2.0 | 0.00 | 0.00 | 0.00 | 52 | 1018.1 |
| 20260904093021 | 60 | 44 | 0.0 | 2.0 | 0.00 | 0.00 | 0.00 | 52 | 1018.1 |
| 20260904092919 | 60 | 44 | 0.0 | 2.0 | 0.00 | 0.00 | 0.00 | 52 | 1018.1 |
| 20260904092818 | 60 | 44 | 0.0 | 2.0 | 0.00 | 0.00 | 0.00 | 52 | 1018.1 |
| 20260904092717 | 60 | 44 | 0.0 | 2.0 | 0.00 | 0.00 | 0.00 | 52 | 1018.1 |
| 20260904092617 | 60 | 44 | 0.0 | 2.0 | 0.00 | 0.00 | 0.00 | 53 | 1018.1 |
| 20260904092553 | 60 | 44 | 0.0 | 2.0 | 0.00 | 0.00 | 0.00 | 52 | 1018.1 |
| 20260904092520 | 60 | 44 | 0.0 | 3.0 | 0.00 | 0.00 | 0.00 | 52 | 1018.1 |
| 20260904092314 | 60 | 44 | 1.0 | 4.0 | 0.00 | 0.00 | 0.00 | 52 | 1018.1 |
| 20260904092212 | 60 | 44 | 1.0 | 4.0 | 0.00 | 0.00 | 0.00 | 52 | 1018.0 |
| 20260904092113 | 60 | 44 | 1.0 | 4.0 | 0.00 | 0.00 | 0.00 | 52 | 1018.0 |
| 20260904092046 | 60 | 44 | 1.0 | 4.0 | 0.00 | 0.00 | 0.00 | 52 | 1018.0 |
| 20260904092010 | 60 | 44 | 1.0 | 4.0 | 0.00 | 0.00 | 0.00 | 52 | 1018.1 |
| 20260904091908 | 60 | 44 | 1.0 | 4.0 | 0.00 | 0.00 | 0.00 | 52 | 1018.0 |
| 20260904091808 | 60 | 44 | 1.0 | 4.0 | 0.00 | 0.00 | 0.00 | 52 | 1018.1 |
| 20260904091721 | 60 | 44 | 1.0 | 4.0 | 0.00 | 0.00 | 0.00 | 53 | 1018.1 |
| 20260904091714 | 60 | 44 | 1.0 | 4.0 | 0.00 | 0.00 | 0.00 | 53 | 1018.1 |
| 20260904091400 | 60 | 51 | 0.0 | 3.0 | 0.00 | 0.00 | 0.00 | 53 | 1018.1 |
| 20260904091258 | 60 | 186 | 0.0 | 2.0 | 0.00 | 0.00 | 0.00 | 52 | 1018.1 |
| 20260904091157 | 60 | 186 | 0.0 | 2.0 | 0.00 | 0.00 | 0.00 | 52 | 1018.1 |
| 20260904091035 | 60 | 186 | 0.0 | 2.0 | 0.00 | 0.00 | 0.00 | 51 | 1018.1 |
| 20260904090958 | 60 | 186 | 0.0 | 2.0 | 0.00 | 0.00 | 0.00 | 51 | 1018.1 |
| 20260904090855 | 60 | 186 | 0.0 | 2.0 | 0.00 | 0.00 | 0.00 | 51 | 1018.1 |
| 20260904090755 | 60 | 186 | 0.0 | 2.0 | 0.00 | 0.00 | 0.00 | 51 | 1018.0 |
| 20260904090743 | 60 | 186 | 0.0 | 2.0 | 0.00 | 0.00 | 0.00 | 51 | 1018.1 |
| 20260904090451 | 60 | 186 | 0.0 | 2.0 | 0.00 | 0.00 | 0.00 | 50 | 1018.1 |
| 20260904090357 | 60 | 186 | 0.0 | 2.0 | 0.00 | 0.00 | 0.00 | 50 | 1018.1 |
| 20260904090147 | 60 | 186 | 0.0 | 0.0 | 0.00 | 0.00 | 0.00 | 50 | 1018.0 |
| 20260904090022 | 60 | 186 | 0.0 | 0.0 | 0.00 | 0.00 | 0.00 | 50 | 1018.0 |
| 20260904085945 | 60 | 186 | 0.0 | 0.0 | 0.00 | 0.00 | 0.00 | 50 | 1018.0 |
| 20260904085843 | 60 | 186 | 0.0 | 0.0 | 0.00 | 0.00 | 0.00 | 50 | 1017.9 |
| 20260904085745 | 60 | 186 | 0.0 | 0.0 | 0.00 | 0.00 | 0.00 | 50 | 1018.0 |
| 20260904085516 | 60 | 186 | 0.0 | 0.0 | 0.00 | 0.00 | 0.00 | 50 | 1018.0 |
| 20260904085437 | 60 | 186 | 0.0 | 0.0 | 0.00 | 0.00 | 0.00 | 50 | 1018.0 |
| 20260904085337 | 60 | 186 | 0.0 | 1.0 | 0.00 | 0.00 | 0.00 | 50 | 1018.0 |
| 20260904085238 | 60 | 186 | 0.0 | 2.0 | 0.00 | 0.00 | 0.00 | 50 | 1018.0 |
| 20260904085140 | 60 | 186 | 1.0 | 3.0 | 0.00 | 0.00 | 0.00 | 50 | 1018.0 |
| 20260904085011 | 60 | 186 | 1.0 | 4.0 | 0.00 | 0.00 | 0.00 | 50 | 1018.0 |
| 20260904084933 | 60 | 186 | 1.0 | 4.0 | 0.00 | 0.00 | 0.00 | 50 | 1018.0 |
| 20260904084831 | 60 | 186 | 1.0 | 4.0 | 0.00 | 0.00 | 0.00 | 49 | 1018.0 |
| 20260904084738 | 60 | 186 | 1.0 | 4.0 | 0.00 | 0.00 | 0.00 | 50 | 1018.0 |
| 20260904084505 | 60 | 186 | 2.0 | 4.0 | 0.00 | 0.00 | 0.00 | 50 | 1018.0 |
| 20260904084428 | 60 | 186 | 2.0 | 4.0 | 0.00 | 0.00 | 0.00 | 50 | 1018.0 |
| 20260904084326 | 60 | 186 | 2.0 | 4.0 | 0.00 | 0.00 | 0.00 | 50 | 1018.0 |
| 20260904084226 | 61 | 186 | 2.0 | 4.0 | 0.00 | 0.00 | 0.00 | 50 | 1017.9 |
| 20260904084037 | 61 | 186 | 2.0 | 3.0 | 0.00 | 0.00 | 0.00 | 50 | 1017.9 |
| 20260904084031 | 61 | 186 | 2.0 | 3.0 | 0.00 | 0.00 | 0.00 | 50 | 1017.9 |
| 20260904083714 | 61 | 19 | 1.0 | 3.0 | 0.00 | 0.00 | 0.00 | 50 | 1017.9 |
| 20260904083620 | 61 | 19 | 1.0 | 3.0 | 0.00 | 0.00 | 0.00 | 50 | 1017.9 |
| 20260904083453 | 61 | 19 | 1.0 | 3.0 | 0.00 | 0.00 | 0.00 | 51 | 1017.9 |
| 20260904083413 | 61 | 19 | 1.0 | 3.0 | 0.00 | 0.00 | 0.00 | 51 | 1017.9 |
| 20260904083313 | 61 | 19 | 1.0 | 3.0 | 0.00 | 0.00 | 0.00 | 50 | 1017.9 |
| 20260904083207 | 61 | 19 | 1.0 | 3.0 | 0.00 | 0.00 | 0.00 | 50 | 1017.9 |
| 20260904083107 | 61 | 19 | 1.0 | 3.0 | 0.00 | 0.00 | 0.00 | 50 | 1017.9 |
| 20260904083054 | 61 | 19 | 0.0 | 3.0 | 0.00 | 0.00 | 0.00 | 50 | 1017.9 |
| 20260904082915 | 61 | 19 | 0.0 | 3.0 | 0.00 | 0.00 | 0.00 | 50 | 1017.9 |
| 20260904082703 | 61 | 19 | 0.0 | 2.0 | 0.00 | 0.00 | 0.00 | 51 | 1017.9 |
| 20260904082604 | 61 | 19 | 0.0 | 1.0 | 0.00 | 0.00 | 0.00 | 51 | 1017.9 |
| 20260904082514 | 61 | 19 | 0.0 | 1.0 | 0.00 | 0.00 | 0.00 | 50 | 1017.9 |
| 20260904082507 | 61 | 19 | 0.0 | 0.0 | 0.00 | 0.00 | 0.00 | 50 | 1017.9 |
| 20260904082300 | 62 | 19 | 0.0 | 0.0 | 0.00 | 0.00 | 0.00 | 50 | 1017.9 |
| 20260904082202 | 62 | 19 | 0.0 | 0.0 | 0.00 | 0.00 | 0.00 | 50 | 1017.9 |
| 20260904082059 | 62 | 19 | 0.0 | 1.0 | 0.00 | 0.00 | 0.00 | 50 | 1017.9 |
| 20260904082008 | 62 | 19 | 0.0 | 1.0 | 0.00 | 0.00 | 0.00 | 50 | 1017.8 |
| 20260904082002 | 62 | 19 | 0.0 | 1.0 | 0.00 | 0.00 | 0.00 | 50 | 1017.9 |
| 20260904081755 | 62 | 19 | 0.0 | 2.0 | 0.00 | 0.00 | 0.00 | 50 | 1017.8 |
| 20260904081655 | 62 | 19 | 1.0 | 2.0 | 0.00 | 0.00 | 0.00 | 50 | 1017.9 |
| 20260904081553 | 62 | 19 | 1.0 | 3.0 | 0.00 | 0.00 | 0.00 | 50 | 1017.9 |
| 20260904081536 | 62 | 19 | 1.0 | 5.0 | 0.00 | 0.00 | 0.00 | 50 | 1017.8 |
| 20260904081357 | 62 | 19 | 1.0 | 5.0 | 0.00 | 0.00 | 0.00 | 49 | 1017.8 |
| 20260904081043 | 62 | 19 | 2.0 | 5.0 | 0.00 | 0.00 | 0.00 | 49 | 1017.8 |
| 20260904080923 | 62 | 19 | 2.0 | 5.0 | 0.00 | 0.00 | 0.00 | 50 | 1017.9 |
| 20260904080844 | 62 | 19 | 2.0 | 5.0 | 0.00 | 0.00 | 0.00 | 50 | 1017.9 |
| 20260904080745 | 62 | 19 | 2.0 | 5.0 | 0.00 | 0.00 | 0.00 | 50 | 1017.9 |
| 20260904080544 | 62 | 34 | 1.0 | 5.0 | 0.00 | 0.00 | 0.00 | 52 | 1017.9 |
| 20260904080417 | 62 | 29 | 1.0 | 4.0 | 0.00 | 0.00 | 0.00 | 52 | 1017.8 |
| 20260904080337 | 62 | 37 | 0.0 | 4.0 | 0.00 | 0.00 | 0.00 | 52 | 1017.8 |
| 20260904080238 | 62 | 99 | 0.0 | 2.0 | 0.00 | 0.00 | 0.00 | 51 | 1017.8 |
| 20260904080132 | 62 | 99 | 0.0 | 2.0 | 0.00 | 0.00 | 0.00 | 51 | 1017.8 |
| 20260904080049 | 63 | 99 | 1.0 | 2.0 | 0.00 | 0.00 | 0.00 | 50 | 1017.8 |
| 20260904075935 | 63 | 99 | 1.0 | 2.0 | 0.00 | 0.00 | 0.00 | 50 | 1017.8 |
| 20260904075731 | 63 | 99 | 1.0 | 2.0 | 0.00 | 0.00 | 0.00 | 50 | 1017.8 |
| 20260904075627 | 63 | 99 | 1.0 | 2.0 | 0.00 | 0.00 | 0.00 | 49 | 1017.8 |
| 20260904075534 | 63 | 99 | 1.0 | 2.0 | 0.00 | 0.00 | 0.00 | 49 | 1017.8 |
| 20260904075404 | 63 | 99 | 1.0 | 2.0 | 0.00 | 0.00 | 0.00 | 49 | 1017.8 |
| 20260904075328 | 63 | 99 | 1.0 | 2.0 | 0.00 | 0.00 | 0.00 | 49 | 1017.8 |
| 20260904075226 | 63 | 99 | 1.0 | 2.0 | 0.00 | 0.00 | 0.00 | 49 | 1017.8 |
| 20260904075126 | 63 | 99 | 1.0 | 2.0 | 0.00 | 0.00 | 0.00 | 49 | 1017.8 |
| 20260904075023 | 63 | 99 | 1.0 | 2.0 | 0.00 | 0.00 | 0.00 | 49 | 1017.8 |
| 20260904074923 | 63 | 99 | 0.0 | 2.0 | 0.00 | 0.00 | 0.00 | 48 | 1017.7 |
| 20260904074859 | 63 | 99 | 0.0 | 2.0 | 0.00 | 0.00 | 0.00 | 48 | 1017.7 |
| 20260904074827 | 63 | 99 | 0.0 | 2.0 | 0.00 | 0.00 | 0.00 | 48 | 1017.8 |
| 20260904074620 | 63 | 99 | 0.0 | 2.0 | 0.00 | 0.00 | 0.00 | 48 | 1017.7 |
| 20260904074517 | 63 | 99 | 0.0 | 2.0 | 0.00 | 0.00 | 0.00 | 47 | 1017.8 |
| 20260904074417 | 63 | 99 | 0.0 | 0.0 | 0.00 | 0.00 | 0.00 | 47 | 1017.7 |
| 20260904074352 | 63 | 99 | 0.0 | 0.0 | 0.00 | 0.00 | 0.00 | 47 | 1017.7 |
| 20260904074316 | 63 | 99 | 0.0 | 0.0 | 0.00 | 0.00 | 0.00 | 46 | 1017.7 |
| 20260904074214 | 63 | 99 | 0.0 | 0.0 | 0.00 | 0.00 | 0.00 | 46 | 1017.8 |
| 20260904074114 | 63 | 99 | 0.0 | 0.0 | 0.00 | 0.00 | 0.00 | 46 | 1017.7 |
| 20260904074012 | 64 | 99 | 0.0 | 0.0 | 0.00 | 0.00 | 0.00 | 46 | 1017.7 |
| 20260904073911 | 64 | 99 | 0.0 | 1.0 | 0.00 | 0.00 | 0.00 | 46 | 1017.8 |
| 20260904073847 | 64 | 99 | 0.0 | 1.0 | 0.00 | 0.00 | 0.00 | 46 | 1017.8 |
| 20260904073809 | 64 | 99 | 0.0 | 2.0 | 0.00 | 0.00 | 0.00 | 46 | 1017.7 |
| 20260904073707 | 64 | 99 | 0.0 | 2.0 | 0.00 | 0.00 | 0.00 | 46 | 1017.7 |
| 20260904073608 | 64 | 99 | 0.0 | 2.0 | 0.00 | 0.00 | 0.00 | 46 | 1017.7 |
| 20260904073505 | 64 | 99 | 0.0 | 2.0 | 0.00 | 0.00 | 0.00 | 45 | 1017.7 |
| 20260904073448 | 64 | 99 | 0.0 | 2.0 | 0.00 | 0.00 | 0.00 | 46 | 1017.7 |
| 20260904073304 | 64 | 99 | 0.0 | 2.0 | 0.00 | 0.00 | 0.00 | 45 | 1017.8 |
| 20260904073209 | 64 | 99 | 0.0 | 3.0 | 0.00 | 0.00 | 0.00 | 46 | 1017.8 |
| 20260904072959 | 64 | 99 | 1.0 | 3.0 | 0.00 | 0.00 | 0.00 | 45 | 1017.7 |
| 20260904072900 | 64 | 99 | 1.0 | 3.0 | 0.00 | 0.00 | 0.00 | 45 | 1017.7 |
| 20260904072835 | 64 | 99 | 1.0 | 3.0 | 0.00 | 0.00 | 0.00 | 45 | 1017.8 |
| 20260904072758 | 64 | 99 | 1.0 | 3.0 | 0.00 | 0.00 | 0.00 | 45 | 1017.8 |
| 20260904072655 | 64 | 99 | 1.0 | 3.0 | 0.00 | 0.00 | 0.00 | 44 | 1017.8 |
| 20260904072555 | 64 | 99 | 1.0 | 3.0 | 0.00 | 0.00 | 0.00 | 45 | 1017.8 |
| 20260904072454 | 64 | 99 | 1.0 | 3.0 | 0.00 | 0.00 | 0.00 | 45 | 1017.8 |
| 20260904072435 | 64 | 99 | 1.0 | 3.0 | 0.00 | 0.00 | 0.00 | 45 | 1017.8 |
| 20260904072251 | 64 | 99 | 1.0 | 3.0 | 0.00 | 0.00 | 0.00 | 45 | 1017.8 |
| 20260904072149 | 64 | 298 | 1.0 | 3.0 | 0.00 | 0.00 | 0.00 | 45 | 1017.9 |
| 20260904072049 | 64 | 298 | 1.0 | 3.0 | 0.00 | 0.00 | 0.00 | 45 | 1017.8 |
| 20260904071947 | 65 | 298 | 1.0 | 3.0 | 0.00 | 0.00 | 0.00 | 44 | 1017.8 |
| 20260904071845 | 65 | 298 | 1.0 | 3.0 | 0.00 | 0.00 | 0.00 | 44 | 1017.8 |
| 20260904071827 | 65 | 298 | 1.0 | 3.0 | 0.00 | 0.00 | 0.00 | 43 | 1017.9 |
| 20260904071802 | 65 | 298 | 1.0 | 3.0 | 0.00 | 0.00 | 0.00 | 43 | 1017.9 |
| 20260904071648 | 65 | 298 | 1.0 | 3.0 | 0.00 | 0.00 | 0.00 | 43 | 1017.9 |
| 20260904071237 | 65 | 298 | 1.0 | 4.0 | 0.00 | 0.00 | 0.00 | 43 | 1017.9 |
| 20260904071137 | 65 | 298 | 1.0 | 4.0 | 0.00 | 0.00 | 0.00 | 43 | 1017.9 |
| 20260904071031 | 65 | 298 | 1.0 | 4.0 | 0.00 | 0.00 | 0.00 | 43 | 1017.9 |
| 20260904070931 | 65 | 298 | 2.0 | 4.0 | 0.00 | 0.00 | 0.00 | 43 | 1017.8 |
| 20260904070824 | 65 | 298 | 2.0 | 4.0 | 0.00 | 0.00 | 0.00 | 43 | 1017.8 |
| 20260904070731 | 65 | 298 | 2.0 | 4.0 | 0.00 | 0.00 | 0.00 | 43 | 1017.9 |
| 20260904070632 | 65 | 168 | 2.0 | 4.0 | 0.00 | 0.00 | 0.00 | 43 | 1017.9 |
| 20260904070527 | 65 | 168 | 2.0 | 4.0 | 0.00 | 0.00 | 0.00 | 43 | 1017.9 |
| 20260904070425 | 65 | 168 | 3.0 | 4.0 | 0.00 | 0.00 | 0.00 | 43 | 1018.0 |
| 20260904070329 | 65 | 168 | 3.0 | 5.0 | 0.00 | 0.00 | 0.00 | 43 | 1017.9 |
| 20260904070325 | 66 | 168 | 3.0 | 5.0 | 0.00 | 0.00 | 0.00 | 43 | 1017.9 |
| 20260904070232 | 65 | 165 | 3.0 | 5.0 | 0.00 | 0.00 | 0.00 | 42 | 1017.9 |
| 20260904070038 | 65 | 291 | 2.0 | 5.0 | 0.00 | 0.00 | 0.00 | 43 | 1017.9 |
| 20260904065820 | 65 | 291 | 2.0 | 5.0 | 0.00 | 0.00 | 0.00 | 43 | 1017.9 |
| 20260904065719 | 65 | 291 | 2.0 | 5.0 | 0.00 | 0.00 | 0.00 | 43 | 1017.9 |
| 20260904065619 | 65 | 291 | 2.0 | 5.0 | 0.00 | 0.00 | 0.00 | 44 | 1017.9 |
| 20260904065516 | 65 | 291 | 2.0 | 6.0 | 0.00 | 0.00 | 0.00 | 44 | 1018.0 |
| 20260904065426 | 65 | 313 | 2.0 | 6.0 | 0.00 | 0.00 | 0.00 | 44 | 1018.0 |
| 20260904065419 | 65 | 313 | 2.0 | 6.0 | 0.00 | 0.00 | 0.00 | 44 | 1018.0 |
| 20260904065218 | 65 | 159 | 2.0 | 7.0 | 0.00 | 0.00 | 0.00 | 44 | 1018.0 |
| 20260904065011 | 65 | 159 | 3.0 | 8.0 | 0.00 | 0.00 | 0.00 | 44 | 1018.0 |
| 20260904064909 | 65 | 159 | 3.0 | 8.0 | 0.00 | 0.00 | 0.00 | 43 | 1018.0 |
| 20260904064807 | 65 | 159 | 3.0 | 8.0 | 0.00 | 0.00 | 0.00 | 43 | 1018.0 |
| 20260904064707 | 65 | 159 | 3.0 | 8.0 | 0.00 | 0.00 | 0.00 | 44 | 1018.0 |
| 20260904064605 | 65 | 159 | 3.0 | 8.0 | 0.00 | 0.00 | 0.00 | 44 | 1018.0 |
| 20260904064516 | 65 | 150 | 2.0 | 8.0 | 0.00 | 0.00 | 0.00 | 44 | 1018.1 |
| 20260904064509 | 65 | 168 | 2.0 | 8.0 | 0.00 | 0.00 | 0.00 | 44 | 1018.1 |
| 20260904064158 | 65 | 159 | 3.0 | 8.0 | 0.00 | 0.00 | 0.00 | 43 | 1018.3 |
| 20260904064057 | 65 | 228 | 3.0 | 6.0 | 0.00 | 0.00 | 0.00 | 42 | 1018.1 |
| 20260904063955 | 65 | 246 | 3.0 | 6.0 | 0.00 | 0.00 | 0.00 | 42 | 1018.1 |
| 20260904063930 | 65 | 253 | 3.0 | 6.0 | 0.00 | 0.00 | 0.00 | 43 | 1018.1 |
| 20260904063755 | 65 | 235 | 3.0 | 6.0 | 0.00 | 0.00 | 0.00 | 43 | 1018.1 |
| 20260904063703 | 65 | 211 | 3.0 | 6.0 | 0.00 | 0.00 | 0.00 | 42 | 1018.1 |
| 20260904063349 | 65 | 165 | 3.0 | 6.0 | 0.00 | 0.00 | 0.00 | 42 | 1018.3 |
| 20260904063323 | 65 | 165 | 2.0 | 6.0 | 0.00 | 0.00 | 0.00 | 42 | 1018.3 |
| 20260904063254 | 65 | 165 | 2.0 | 6.0 | 0.00 | 0.00 | 0.00 | 42 | 1018.3 |
| 20260904063045 | 65 | 161 | 2.0 | 6.0 | 0.00 | 0.00 | 0.00 | 42 | 1018.3 |
| 20260904062939 | 66 | 168 | 2.0 | 6.0 | 0.00 | 0.00 | 0.00 | 41 | 1018.3 |
| 20260904062821 | 66 | 196 | 1.0 | 4.0 | 0.00 | 0.00 | 0.00 | 41 | 1018.3 |
| 20260904062739 | 66 | 196 | 1.0 | 4.0 | 0.00 | 0.00 | 0.00 | 41 | 1018.3 |
| 20260904062639 | 66 | 196 | 2.0 | 3.0 | 0.00 | 0.00 | 0.00 | 41 | 1018.3 |
| 20260904062549 | 66 | 196 | 2.0 | 4.0 | 0.00 | 0.00 | 0.00 | 41 | 1018.4 |
| 20260904062321 | 66 | 196 | 2.0 | 5.0 | 0.00 | 0.00 | 0.00 | 41 | 1018.3 |
| 20260904062233 | 66 | 196 | 2.0 | 5.0 | 0.00 | 0.00 | 0.00 | 41 | 1018.3 |
| 20260904062134 | 66 | 196 | 3.0 | 5.0 | 0.00 | 0.00 | 0.00 | 41 | 1018.3 |
| 20260904062034 | 66 | 196 | 3.0 | 5.0 | 0.00 | 0.00 | 0.00 | 41 | 1018.3 |
| 20260904061929 | 66 | 196 | 3.0 | 5.0 | 0.00 | 0.00 | 0.00 | 41 | 1018.3 |
| 20260904061821 | 67 | 196 | 3.0 | 5.0 | 0.00 | 0.00 | 0.00 | 41 | 1018.3 |
| 20260904061727 | 67 | 196 | 3.0 | 5.0 | 0.00 | 0.00 | 0.00 | 41 | 1018.3 |
| 20260904061634 | 67 | 196 | 3.0 | 5.0 | 0.00 | 0.00 | 0.00 | 41 | 1018.3 |
| 20260904061425 | 67 | 200 | 2.0 | 5.0 | 0.00 | 0.00 | 0.00 | 41 | 1018.3 |
| 20260904061339 | 67 | 152 | 2.0 | 4.0 | 0.00 | 0.00 | 0.00 | 41 | 1018.4 |
| 20260904060926 | 67 | 154 | 2.0 | 4.0 | 0.00 | 0.00 | 0.00 | 41 | 1018.4 |
| 20260904060919 | 67 | 154 | 3.0 | 4.0 | 0.00 | 0.00 | 0.00 | 41 | 1018.3 |
| 20260904060716 | 67 | 154 | 3.0 | 5.0 | 0.00 | 0.00 | 0.00 | 41 | 1018.4 |
| 20260904060614 | 68 | 154 | 3.0 | 5.0 | 0.00 | 0.00 | 0.00 | 41 | 1018.4 |
| 20260904060513 | 68 | 154 | 3.0 | 5.0 | 0.00 | 0.00 | 0.00 | 41 | 1018.4 |
| 20260904060409 | 68 | 154 | 3.0 | 5.0 | 0.00 | 0.00 | 0.00 | 40 | 1018.4 |
| 20260904060321 | 68 | 154 | 3.0 | 5.0 | 0.00 | 0.00 | 0.00 | 40 | 1018.4 |
| 20260904060314 | 68 | 139 | 3.0 | 7.0 | 0.00 | 0.00 | 0.00 | 40 | 1018.4 |
| 20260904060107 | 68 | 144 | 3.0 | 7.0 | 0.00 | 0.00 | 0.00 | 40 | 1018.4 |
| 20260904060006 | 68 | 144 | 3.0 | 7.0 | 0.00 | 0.00 | 0.00 | 40 | 1018.5 |
| 20260904055902 | 68 | 144 | 3.0 | 7.0 | 0.00 | 0.00 | 0.00 | 40 | 1018.5 |
| 20260904055820 | 68 | 144 | 3.0 | 7.0 | 0.00 | 0.00 | 0.00 | 40 | 1018.5 |
| 20260904055800 | 68 | 123 | 3.0 | 7.0 | 0.00 | 0.00 | 0.00 | 40 | 1018.5 |
| 20260904055708 | 69 | 144 | 3.0 | 7.0 | 0.00 | 0.00 | 0.00 | 40 | 1018.5 |
| 20260904055501 | 69 | 166 | 4.0 | 7.0 | 0.00 | 0.00 | 0.00 | 40 | 1018.5 |
| 20260904055358 | 69 | 137 | 4.0 | 12.0 | 0.00 | 0.00 | 0.00 | 39 | 1018.5 |
| 20260904055315 | 69 | 121 | 5.0 | 14.0 | 0.00 | 0.00 | 0.00 | 39 | 1018.6 |
| 20260904055258 | 69 | 132 | 5.0 | 14.0 | 0.00 | 0.00 | 0.00 | 40 | 1018.6 |
| 20260904055158 | 69 | 148 | 5.0 | 14.0 | 0.00 | 0.00 | 0.00 | 39 | 1018.5 |
| 20260904055055 | 69 | 148 | 5.0 | 14.0 | 0.00 | 0.00 | 0.00 | 39 | 1018.5 |
| 20260904054953 | 69 | 148 | 5.0 | 14.0 | 0.00 | 0.00 | 0.00 | 39 | 1018.5 |
| 20260904054916 | 69 | 169 | 6.0 | 14.0 | 0.00 | 0.00 | 0.00 | 39 | 1018.4 |
| 20260904054747 | 69 | 140 | 6.0 | 14.0 | 0.00 | 0.00 | 0.00 | 39 | 1018.5 |
| 20260904054647 | 68 | 144 | 6.0 | 14.0 | 0.00 | 0.00 | 0.00 | 39 | 1018.6 |
| 20260904054548 | 68 | 134 | 6.0 | 14.0 | 0.00 | 0.00 | 0.00 | 39 | 1018.5 |
| 20260904054447 | 68 | 132 | 5.0 | 14.0 | 0.00 | 0.00 | 0.00 | 39 | 1018.6 |
| 20260904054352 | 68 | 133 | 4.0 | 13.0 | 0.00 | 0.00 | 0.00 | 40 | 1018.6 |
| 20260904054346 | 68 | 115 | 4.0 | 13.0 | 0.00 | 0.00 | 0.00 | 40 | 1018.5 |
| 20260904054149 | 67 | 146 | 4.0 | 9.0 | 0.00 | 0.00 | 0.00 | 39 | 1018.4 |
| 20260904053941 | 67 | 124 | 2.0 | 8.0 | 0.00 | 0.00 | 0.00 | 39 | 1018.3 |
| 20260904053904 | 67 | 140 | 2.0 | 5.0 | 0.00 | 0.00 | 0.00 | 39 | 1018.3 |
| 20260904053750 | 67 | 150 | 2.0 | 5.0 | 0.00 | 0.00 | 0.00 | 39 | 1018.1 |
| 20260904053435 | 67 | 193 | 2.0 | 4.0 | 0.00 | 0.00 | 0.00 | 39 | 1017.9 |
| 20260904053341 | 68 | 219 | 2.0 | 4.0 | 0.00 | 0.00 | 0.00 | 38 | 1017.9 |
| 20260904053334 | 68 | 219 | 2.0 | 5.0 | 0.00 | 0.00 | 0.00 | 38 | 1017.9 |
| 20260904053130 | 68 | 214 | 2.0 | 5.0 | 0.00 | 0.00 | 0.00 | 38 | 1017.9 |
| 20260904053029 | 68 | 214 | 2.0 | 5.0 | 0.00 | 0.00 | 0.00 | 38 | 1017.9 |
| 20260904052930 | 68 | 214 | 2.0 | 5.0 | 0.00 | 0.00 | 0.00 | 38 | 1017.9 |
| 20260904052851 | 68 | 214 | 2.0 | 5.0 | 0.00 | 0.00 | 0.00 | 38 | 1017.9 |
| 20260904052723 | 68 | 221 | 2.0 | 5.0 | 0.00 | 0.00 | 0.00 | 39 | 1017.9 |
| 20260904052624 | 68 | 205 | 1.0 | 5.0 | 0.00 | 0.00 | 0.00 | 39 | 1017.9 |
| 20260904052530 | 68 | 215 | 1.0 | 5.0 | 0.00 | 0.00 | 0.00 | 39 | 1017.8 |
| 20260904052332 | 69 | 178 | 1.0 | 5.0 | 0.00 | 0.00 | 0.00 | 39 | 1017.8 |
| 20260904052326 | 69 | 190 | 1.0 | 3.0 | 0.00 | 0.00 | 0.00 | 39 | 1017.8 |
| 20260904052130 | 69 | 190 | 1.0 | 4.0 | 0.00 | 0.00 | 0.00 | 39 | 1017.9 |
| 20260904051826 | 69 | 190 | 1.0 | 4.0 | 0.00 | 0.00 | 0.00 | 39 | 1017.9 |
| 20260904051819 | 69 | 190 | 1.0 | 4.0 | 0.00 | 0.00 | 0.00 | 38 | 1017.8 |
| 20260904051620 | 69 | 190 | 2.0 | 4.0 | 0.00 | 0.00 | 0.00 | 38 | 1017.8 |
| 20260904051414 | 69 | 190 | 2.0 | 4.0 | 0.00 | 0.00 | 0.00 | 37 | 1017.8 |
| 20260904051205 | 69 | 190 | 2.0 | 4.0 | 0.00 | 0.00 | 0.00 | 37 | 1017.8 |
| 20260904051105 | 69 | 190 | 2.0 | 5.0 | 0.00 | 0.00 | 0.00 | 37 | 1017.8 |
| 20260904051006 | 69 | 190 | 2.0 | 5.0 | 0.00 | 0.00 | 0.00 | 37 | 1017.8 |
| 20260904050906 | 69 | 190 | 2.0 | 5.0 | 0.00 | 0.00 | 0.00 | 37 | 1017.8 |
| 20260904050806 | 69 | 190 | 2.0 | 5.0 | 0.00 | 0.00 | 0.00 | 37 | 1017.8 |
| 20260904050731 | 69 | 190 | 2.0 | 5.0 | 0.00 | 0.00 | 0.00 | 37 | 1017.8 |
| 20260904050703 | 69 | 190 | 2.0 | 5.0 | 0.00 | 0.00 | 0.00 | 36 | 1017.8 |
| 20260904050603 | 69 | 190 | 2.0 | 5.0 | 0.00 | 0.00 | 0.00 | 36 | 1017.8 |
| 20260904050501 | 69 | 190 | 2.0 | 5.0 | 0.00 | 0.00 | 0.00 | 36 | 1017.8 |
| 20260904050359 | 69 | 190 | 2.0 | 5.0 | 0.00 | 0.00 | 0.00 | 36 | 1017.8 |
| 20260904050309 | 70 | 190 | 1.0 | 5.0 | 0.00 | 0.00 | 0.00 | 36 | 1017.8 |
| 20260904050303 | 70 | 196 | 1.0 | 5.0 | 0.00 | 0.00 | 0.00 | 36 | 1017.8 |
| 20260904050055 | 70 | 233 | 1.0 | 3.0 | 0.00 | 0.00 | 0.00 | 36 | 1017.8 |
| 20260904045955 | 70 | 233 | 1.0 | 3.0 | 0.00 | 0.00 | 0.00 | 36 | 1017.7 |
| 20260904045853 | 70 | 233 | 1.0 | 3.0 | 0.00 | 0.00 | 0.00 | 36 | 1017.8 |
| 20260904045747 | 70 | 233 | 1.0 | 3.0 | 0.00 | 0.00 | 0.00 | 36 | 1017.7 |
| 20260904045730 | 70 | 233 | 2.0 | 3.0 | 0.00 | 0.00 | 0.00 | 35 | 1017.8 |
| 20260904045647 | 70 | 233 | 2.0 | 3.0 | 0.00 | 0.00 | 0.00 | 36 | 1017.8 |
| 20260904045547 | 70 | 233 | 2.0 | 3.0 | 0.00 | 0.00 | 0.00 | 35 | 1017.8 |
| 20260904045447 | 70 | 233 | 2.0 | 3.0 | 0.00 | 0.00 | 0.00 | 36 | 1017.7 |
| 20260904045347 | 71 | 233 | 2.0 | 3.0 | 0.00 | 0.00 | 0.00 | 35 | 1017.7 |
| 20260904045245 | 71 | 248 | 1.0 | 3.0 | 0.00 | 0.00 | 0.00 | 35 | 1017.7 |
| 20260904045041 | 71 | 248 | 1.0 | 3.0 | 0.00 | 0.00 | 0.00 | 35 | 1017.7 |
| 20260904044941 | 71 | 248 | 1.0 | 3.0 | 0.00 | 0.00 | 0.00 | 35 | 1017.7 |
| 20260904044841 | 71 | 248 | 1.0 | 3.0 | 0.00 | 0.00 | 0.00 | 35 | 1017.7 |
| 20260904044731 | 71 | 260 | 1.0 | 3.0 | 0.00 | 0.00 | 0.00 | 35 | 1017.7 |
| 20260904044636 | 71 | 192 | 1.0 | 3.0 | 0.00 | 0.00 | 0.00 | 35 | 1017.7 |
| 20260904044535 | 71 | 192 | 1.0 | 2.0 | 0.00 | 0.00 | 0.00 | 34 | 1017.7 |
| 20260904044436 | 71 | 192 | 1.0 | 3.0 | 0.00 | 0.00 | 0.00 | 34 | 1017.7 |
| 20260904044335 | 71 | 192 | 1.0 | 3.0 | 0.00 | 0.00 | 0.00 | 34 | 1017.8 |
| 20260904044229 | 72 | 192 | 1.0 | 3.0 | 0.00 | 0.00 | 0.00 | 35 | 1017.8 |
| 20260904044136 | 72 | 192 | 1.0 | 3.0 | 0.00 | 0.00 | 0.00 | 34 | 1017.8 |
| 20260904043941 | 72 | 192 | 1.0 | 3.0 | 0.00 | 0.00 | 0.00 | 34 | 1017.8 |
| 20260904043828 | 72 | 192 | 1.0 | 3.0 | 0.00 | 0.00 | 0.00 | 34 | 1017.7 |
| 20260904043630 | 73 | 192 | 1.0 | 3.0 | 0.00 | 0.00 | 0.00 | 34 | 1017.7 |
| 20260904043423 | 73 | 232 | 1.0 | 3.0 | 0.00 | 0.00 | 0.00 | 33 | 1017.7 |
| 20260904043324 | 73 | 232 | 1.0 | 5.0 | 0.00 | 0.00 | 0.00 | 33 | 1017.7 |
| 20260904043224 | 73 | 172 | 2.0 | 5.0 | 0.00 | 0.00 | 0.00 | 33 | 1017.7 |
| 20260904043121 | 74 | 172 | 2.0 | 6.0 | 0.00 | 0.00 | 0.00 | 33 | 1017.7 |
| 20260904043021 | 74 | 172 | 2.0 | 6.0 | 0.00 | 0.00 | 0.00 | 33 | 1017.8 |
| 20260904042920 | 74 | 172 | 2.0 | 6.0 | 0.00 | 0.00 | 0.00 | 33 | 1017.8 |
| 20260904042817 | 74 | 172 | 3.0 | 6.0 | 0.00 | 0.00 | 0.00 | 33 | 1017.8 |
| 20260904042713 | 74 | 172 | 3.0 | 6.0 | 0.00 | 0.00 | 0.00 | 33 | 1017.8 |
| 20260904042625 | 74 | 172 | 3.0 | 6.0 | 0.00 | 0.00 | 0.00 | 32 | 1017.8 |
| 20260904042311 | 75 | 169 | 3.0 | 8.0 | 0.00 | 0.00 | 0.00 | 32 | 1017.8 |
| 20260904042224 | 75 | 169 | 4.0 | 8.0 | 0.00 | 0.00 | 0.00 | 32 | 1017.8 |
| 20260904042210 | 75 | 167 | 4.0 | 8.0 | 0.00 | 0.00 | 0.00 | 32 | 1017.8 |
| 20260904042110 | 75 | 173 | 4.0 | 9.0 | 0.00 | 0.00 | 0.00 | 32 | 1017.8 |
| 20260904042009 | 75 | 173 | 4.0 | 9.0 | 0.00 | 0.00 | 0.00 | 32 | 1017.8 |
| 20260904041907 | 75 | 195 | 4.0 | 9.0 | 0.00 | 0.00 | 0.00 | 32 | 1017.8 |
| 20260904041805 | 75 | 200 | 4.0 | 9.0 | 0.00 | 0.00 | 0.00 | 33 | 1017.8 |
| 20260904041723 | 76 | 258 | 5.0 | 9.0 | 0.00 | 0.00 | 0.00 | 33 | 1017.8 |
| 20260904041701 | 76 | 258 | 5.0 | 9.0 | 0.00 | 0.00 | 0.00 | 33 | 1017.8 |
| 20260904041559 | 76 | 258 | 5.0 | 9.0 | 0.00 | 0.00 | 0.00 | 32 | 1017.7 |
| 20260904041506 | 76 | 257 | 5.0 | 10.0 | 0.00 | 0.00 | 0.00 | 32 | 1017.7 |
| 20260904041259 | 76 | 292 | 6.0 | 11.0 | 0.00 | 0.00 | 0.00 | 31 | 1017.5 |
| 20260904041223 | 76 | 259 | 6.0 | 11.0 | 0.00 | 0.00 | 0.00 | 31 | 1017.7 |
| 20260904041153 | 76 | 284 | 6.0 | 11.0 | 0.00 | 0.00 | 0.00 | 31 | 1017.7 |
| 20260904041053 | 76 | 285 | 6.0 | 11.0 | 0.00 | 0.00 | 0.00 | 31 | 1017.7 |
| 20260904040953 | 76 | 308 | 6.0 | 13.0 | 0.00 | 0.00 | 0.00 | 31 | 1017.7 |
| 20260904040854 | 76 | 319 | 7.0 | 13.0 | 0.00 | 0.00 | 0.00 | 31 | 1017.7 |
| 20260904040753 | 76 | 309 | 7.0 | 13.0 | 0.00 | 0.00 | 0.00 | 31 | 1017.5 |
| 20260904040723 | 76 | 284 | 7.0 | 13.0 | 0.00 | 0.00 | 0.00 | 31 | 1017.5 |
| 20260904040651 | 76 | 298 | 7.0 | 13.0 | 0.00 | 0.00 | 0.00 | 31 | 1017.5 |
| 20260904040559 | 76 | 292 | 7.0 | 13.0 | 0.00 | 0.00 | 0.00 | 31 | 1017.5 |
| 20260904040349 | 76 | 284 | 7.0 | 13.0 | 0.00 | 0.00 | 0.00 | 31 | 1017.5 |
| 20260904040249 | 76 | 311 | 7.0 | 13.0 | 0.00 | 0.00 | 0.00 | 30 | 1017.5 |
| 20260904040222 | 76 | 324 | 7.0 | 13.0 | 0.00 | 0.00 | 0.00 | 30 | 1017.5 |
| 20260904040150 | 76 | 315 | 7.0 | 13.0 | 0.00 | 0.00 | 0.00 | 30 | 1017.5 |
| 20260904040049 | 76 | 308 | 7.0 | 13.0 | 0.00 | 0.00 | 0.00 | 30 | 1017.5 |
| 20260904035949 | 77 | 282 | 8.0 | 12.0 | 0.00 | 0.00 | 0.00 | 30 | 1017.5 |
| 20260904035849 | 77 | 300 | 8.0 | 13.0 | 0.00 | 0.00 | 0.00 | 30 | 1017.5 |
| 20260904035750 | 77 | 291 | 8.0 | 13.0 | 0.00 | 0.00 | 0.00 | 30 | 1017.5 |
| 20260904035723 | 77 | 305 | 9.0 | 13.0 | 0.00 | 0.00 | 0.00 | 30 | 1017.5 |
| 20260904035649 | 77 | 298 | 9.0 | 13.0 | 0.00 | 0.00 | 0.00 | 31 | 1017.5 |
| 20260904035621 | 77 | 282 | 9.0 | 13.0 | 0.00 | 0.00 | 0.00 | 30 | 1017.7 |
| 20260904035614 | 77 | 298 | 9.0 | 15.0 | 0.00 | 0.00 | 0.00 | 30 | 1017.5 |
| 20260904035050 | 77 | 304 | 9.0 | 15.0 | 0.00 | 0.00 | 0.00 | 31 | 1017.5 |
| 20260904034943 | 77 | 296 | 9.0 | 15.0 | 0.00 | 0.00 | 0.00 | 31 | 1017.5 |
| 20260904034843 | 77 | 304 | 9.0 | 15.0 | 0.00 | 0.00 | 0.00 | 31 | 1017.5 |
| 20260904034744 | 77 | 311 | 10.0 | 15.0 | 0.00 | 0.00 | 0.00 | 31 | 1017.5 |
| 20260904034722 | 77 | 303 | 10.0 | 15.0 | 0.00 | 0.00 | 0.00 | 31 | 1017.5 |
| 20260904034644 | 77 | 307 | 10.0 | 15.0 | 0.00 | 0.00 | 0.00 | 31 | 1017.5 |
| 20260904034544 | 77 | 313 | 10.0 | 15.0 | 0.00 | 0.00 | 0.00 | 31 | 1017.5 |
| 20260904034438 | 77 | 300 | 11.0 | 16.0 | 0.00 | 0.00 | 0.00 | 31 | 1017.5 |
| 20260904034338 | 77 | 311 | 11.0 | 16.0 | 0.00 | 0.00 | 0.00 | 31 | 1017.5 |
| 20260904034237 | 77 | 301 | 11.0 | 16.0 | 0.00 | 0.00 | 0.00 | 31 | 1017.5 |
| 20260904034222 | 77 | 304 | 11.0 | 16.0 | 0.00 | 0.00 | 0.00 | 31 | 1017.5 |
| 20260904034138 | 77 | 288 | 11.0 | 16.0 | 0.00 | 0.00 | 0.00 | 31 | 1017.4 |
| 20260904034042 | 77 | 304 | 10.0 | 16.0 | 0.00 | 0.00 | 0.00 | 31 | 1017.5 |
| 20260904033729 | 77 | 323 | 10.0 | 16.0 | 0.00 | 0.00 | 0.00 | 31 | 1017.4 |
| 20260904033722 | 77 | 296 | 10.0 | 16.0 | 0.00 | 0.00 | 0.00 | 30 | 1017.4 |
| 20260904033629 | 77 | 320 | 10.0 | 16.0 | 0.00 | 0.00 | 0.00 | 31 | 1017.4 |
| 20260904033530 | 77 | 315 | 9.0 | 16.0 | 0.00 | 0.00 | 0.00 | 31 | 1017.3 |
| 20260904033323 | 77 | 299 | 9.0 | 15.0 | 0.00 | 0.00 | 0.00 | 31 | 1017.3 |
| 20260904033229 | 77 | 298 | 9.0 | 16.0 | 0.00 | 0.00 | 0.00 | 30 | 1017.3 |
| 20260904033224 | 77 | 289 | 9.0 | 16.0 | 0.00 | 0.00 | 0.00 | 30 | 1017.3 |
| 20260904033123 | 77 | 302 | 10.0 | 16.0 | 0.00 | 0.00 | 0.00 | 31 | 1017.3 |
| 20260904033024 | 77 | 314 | 10.0 | 16.0 | 0.00 | 0.00 | 0.00 | 31 | 1017.3 |
| 20260904032924 | 77 | 307 | 10.0 | 16.0 | 0.00 | 0.00 | 0.00 | 31 | 1017.4 |
| 20260904032835 | 77 | 306 | 11.0 | 18.0 | 0.00 | 0.00 | 0.00 | 31 | 1017.3 |
| 20260904032829 | 77 | 331 | 11.0 | 18.0 | 0.00 | 0.00 | 0.00 | 31 | 1017.4 |
| 20260904032624 | 77 | 322 | 11.0 | 19.0 | 0.00 | 0.00 | 0.00 | 30 | 1017.4 |
| 20260904032523 | 77 | 275 | 12.0 | 19.0 | 0.00 | 0.00 | 0.00 | 30 | 1017.3 |